GFSSW_prec_precacc24_222.txt.gz
Total_Precipitation_Accumulation
0.04 0.05 0.06 0.06 0.05 0.05 0.05 0.05 0.05 0.04 0.03 0.03 0.03 0.03 0.03 0.05 0.03 0.02 0.00 0.00 0.00 0.00 0.00 0.01 0.02 0.04 0.18 0.18 0.10 0.04 0.01 0.00 0.00 0.00 0.00 0.00 0.00 0.00 0.00 0.00 0.00 0.00 0.00 0.00 0.00
0.03 0.05 0.06 0.05 0.06 0.06 0.06 0.05 0.04 0.04 0.03 0.03 0.03 0.03 0.03 0.04 0.02 0.00 0.00 0.00 0.00 0.01 0.01 0.01 0.02 0.05 0.11 0.15 0.18 0.07 0.01 0.00 0.00 0.00 0.00 0.00 0.00 0.00 0.00 0.00 0.00 0.00 0.00 0.00 0.00
0.03 0.06 0.05 0.06 0.07 0.06 0.06 0.06 0.04 0.04 0.03 0.03 0.04 0.04 0.04 0.05 0.01 0.00 0.00 0.00 0.01 0.03 0.01 0.01 0.02 0.08 0.09 0.12 0.14 0.04 0.00 0.00 0.00 0.00 0.00 0.00 0.00 0.00 0.00 0.00 0.00 0.00 0.00 0.00 0.00
0.04 0.06 0.05 0.07 0.07 0.06 0.05 0.04 0.04 0.03 0.03 0.05 0.05 0.04 0.06 0.06 0.01 0.00 0.01 0.00 0.02 0.02 0.02 0.03 0.07 0.09 0.06 0.06 0.06 0.05 0.01 0.00 0.00 0.00 0.00 0.00 0.00 0.00 0.00 0.00 0.00 0.00 0.00 0.00 0.00
0.06 0.05 0.05 0.06 0.05 0.05 0.04 0.03 0.04 0.04 0.05 0.04 0.04 0.05 0.08 0.05 0.01 0.00 0.00 0.01 0.01 0.04 0.03 0.04 0.05 0.06 0.03 0.01 0.05 0.06 0.02 0.01 0.00 0.00 0.00 0.00 0.00 0.00 0.00 0.00 0.00 0.00 0.00 0.00 0.00
0.05 0.04 0.05 0.05 0.03 0.03 0.03 0.03 0.05 0.05 0.04 0.04 0.05 0.10 0.13 0.04 0.00 0.00 0.00 0.00 0.01 0.03 0.11 0.09 0.04 0.05 0.07 0.02 0.04 0.02 0.03 0.03 0.02 0.04 0.01 0.00 0.00 0.00 0.00 0.00 0.00 0.00 0.00 0.00 0.00
0.05 0.05 0.05 0.03 0.02 0.02 0.03 0.03 0.04 0.04 0.03 0.04 0.07 0.17 0.13 0.02 0.00 0.00 0.01 0.04 0.03 0.06 0.07 0.17 0.23 0.19 0.13 0.08 0.03 0.07 0.10 0.11 0.05 0.07 0.10 0.03 0.00 0.00 0.00 0.00 0.00 0.00 0.00 0.00 0.00
0.05 0.05 0.03 0.02 0.01 0.02 0.03 0.02 0.02 0.02 0.03 0.04 0.09 0.26 0.11 0.00 0.00 0.00 0.00 0.03 0.08 0.13 0.14 0.18 0.39 0.33 0.26 0.17 0.07 0.11 0.16 0.10 0.02 0.03 0.05 0.17 0.09 0.00 0.00 0.00 0.00 0.00 0.00 0.00 0.00
0.07 0.05 0.03 0.01 0.02 0.03 0.02 0.02 0.02 0.02 0.03 0.04 0.08 0.19 0.06 0.00 0.00 0.00 0.00 0.00 0.04 0.16 0.18 0.28 0.40 0.29 0.24 0.20 0.19 0.15 0.09 0.03 0.01 0.01 0.01 0.03 0.04 0.00 0.00 0.00 0.00 0.00 0.00 0.00 0.00
0.05 0.04 0.02 0.03 0.04 0.03 0.05 0.03 0.02 0.02 0.03 0.08 0.16 0.24 0.02 0.00 0.00 0.00 0.00 0.00 0.00 0.11 0.30 0.29 0.26 0.22 0.20 0.29 0.23 0.07 0.01 0.01 0.00 0.00 0.00 0.00 0.00 0.00 0.00 0.00 0.00 0.00 0.00 0.00 0.00
0.05 0.05 0.02 0.07 0.06 0.08 0.08 0.03 0.02 0.06 0.10 0.10 0.10 0.14 0.05 0.01 0.02 0.01 0.01 0.01 0.03 0.09 0.07 0.15 0.19 0.18 0.04 0.10 0.05 0.01 0.00 0.00 0.00 0.00 0.00 0.00 0.00 0.00 0.00 0.00 0.00 0.00 0.00 0.00 0.00
0.05 0.04 0.09 0.07 0.10 0.10 0.12 0.12 0.16 0.35 0.25 0.04 0.06 0.06 0.05 0.02 0.09 0.09 0.09 0.11 0.06 0.05 0.10 0.24 0.12 0.00 0.01 0.03 0.09 0.06 0.03 0.01 0.00 0.00 0.00 0.00 0.00 0.00 0.00 0.00 0.00 0.00 0.00 0.00 0.00
0.04 0.07 0.08 0.08 0.10 0.04 0.04 0.11 0.13 0.30 0.51 0.11 0.01 0.02 0.01 0.07 0.10 0.11 0.14 0.27 0.11 0.08 0.09 0.13 0.04 0.03 0.03 0.10 0.12 0.21 0.15 0.02 0.00 0.00 0.01 0.00 0.00 0.00 0.00 0.00 0.00 0.00 0.00 0.00 0.00
0.04 0.06 0.10 0.18 0.09 0.06 0.08 0.20 0.20 0.36 0.84 0.14 0.02 0.03 0.00 0.05 0.11 0.06 0.12 0.34 0.42 0.08 0.09 0.15 0.05 0.11 0.10 0.10 0.12 0.14 0.16 0.14 0.03 0.02 0.03 0.00 0.00 0.00 0.00 0.00 0.00 0.00 0.00 0.00 0.00
0.04 0.04 0.10 0.33 0.23 0.11 0.13 0.25 0.43 0.61 0.72 0.06 0.06 0.04 0.02 0.05 0.03 0.05 0.17 0.43 0.52 0.33 0.13 0.09 0.03 0.22 0.22 0.11 0.07 0.10 0.03 0.11 0.18 0.09 0.02 0.00 0.00 0.00 0.00 0.00 0.00 0.00 0.00 0.00 0.00
0.05 0.08 0.15 0.15 0.14 0.08 0.14 0.22 0.50 1.01 0.52 0.06 0.07 0.05 0.09 0.09 0.04 0.19 0.26 0.56 0.59 0.62 0.32 0.08 0.04 0.11 0.14 0.06 0.07 0.10 0.27 0.23 0.47 0.47 0.28 0.01 0.00 0.00 0.00 0.00 0.00 0.00 0.00 0.00 0.00
0.06 0.07 0.16 0.19 0.05 0.10 0.27 0.43 0.78 0.67 0.10 0.06 0.08 0.04 0.09 0.19 0.15 0.22 0.81 0.70 0.78 0.83 0.67 0.19 0.08 0.01 0.08 0.15 0.30 0.44 0.54 0.97 0.93 0.84 0.35 0.00 0.00 0.00 0.00 0.00 0.00 0.00 0.00 0.00 0.00
0.05 0.08 0.04 0.04 0.07 0.24 0.39 0.51 0.74 0.23 0.10 0.05 0.05 0.12 0.13 0.19 0.25 0.12 0.27 0.34 0.52 0.57 0.70 0.36 0.18 0.05 0.05 0.11 0.26 0.57 0.38 0.44 0.38 0.25 0.09 0.00 0.01 0.00 0.00 0.00 0.00 0.00 0.00 0.00 0.00
0.05 0.01 0.00 0.01 0.03 0.22 0.45 0.63 0.29 0.19 0.16 0.08 0.09 0.14 0.21 0.26 0.37 0.30 0.14 0.20 0.17 0.36 0.62 0.57 0.09 0.00 0.01 0.02 0.09 0.33 0.51 0.15 0.04 0.01 0.01 0.01 0.00 0.00 0.00 0.00 0.00 0.00 0.00 0.00 0.00
0.02 0.00 0.01 0.00 0.11 0.22 0.38 0.28 0.11 0.13 0.16 0.13 0.19 0.16 0.11 0.29 0.44 0.38 0.32 0.16 0.16 0.08 0.22 0.62 0.43 0.04 0.03 0.10 0.09 0.17 0.28 0.27 0.19 0.05 0.01 0.00 0.00 0.00 0.00 0.00 0.00 0.00 0.00 0.00 0.00
0.01 0.01 0.01 0.03 0.26 0.17 0.34 0.16 0.05 0.05 0.10 0.24 0.23 0.18 0.13 0.26 0.29 0.39 0.61 0.31 0.22 0.10 0.11 0.52 0.71 0.34 0.08 0.11 0.06 0.09 0.34 0.24 0.09 0.03 0.00 0.00 0.00 0.00 0.00 0.00 0.00 0.00 0.00 0.00 0.00
0.01 0.02 0.01 0.08 0.13 0.13 0.09 0.06 0.05 0.04 0.10 0.09 0.16 0.09 0.08 0.07 0.26 0.32 0.35 0.49 0.21 0.17 0.21 0.30 0.65 0.46 0.06 0.01 0.01 0.01 0.02 0.06 0.06 0.05 0.00 0.00 0.00 0.00 0.00 0.00 0.00 0.00 0.00 0.00 0.00
0.07 0.01 0.00 0.03 0.08 0.11 0.06 0.02 0.03 0.02 0.07 0.10 0.09 0.17 0.11 0.07 0.16 0.12 0.14 0.11 0.12 0.27 0.26 0.31 0.78 0.60 0.40 0.15 0.03 0.02 0.01 0.01 0.00 0.00 0.00 0.00 0.00 0.00 0.00 0.00 0.00 0.00 0.00 0.00 0.00
0.02 0.00 0.01 0.04 0.10 0.21 0.14 0.03 0.02 0.01 0.02 0.03 0.04 0.12 0.23 0.15 0.13 0.10 0.18 0.09 0.08 0.30 0.40 0.23 0.25 0.19 0.16 0.09 0.01 0.03 0.00 0.00 0.00 0.00 0.00 0.00 0.00 0.00 0.00 0.00 0.00 0.00 0.00 0.00 0.00
0.00 0.00 0.01 0.03 0.04 0.04 0.18 0.13 0.03 0.05 0.05 0.05 0.03 0.04 0.17 0.31 0.28 0.23 0.22 0.14 0.07 0.14 0.48 0.52 0.16 0.08 0.02 0.01 0.01 0.01 0.01 0.00 0.00 0.00 0.00 0.00 0.00 0.00 0.00 0.00 0.00 0.00 0.00 0.00 0.00
0.01 0.02 0.09 0.03 0.00 0.05 0.22 0.19 0.06 0.05 0.05 0.06 0.05 0.05 0.11 0.10 0.31 0.41 0.36 0.21 0.18 0.25 0.63 0.58 0.13 0.03 0.01 0.00 0.00 0.00 0.01 0.02 0.01 0.00 0.00 0.00 0.00 0.00 0.00 0.00 0.00 0.00 0.00 0.00 0.00
0.01 0.02 0.10 0.02 0.03 0.16 0.32 0.28 0.24 0.24 0.15 0.07 0.04 0.09 0.09 0.14 0.13 0.16 0.26 0.14 0.16 0.28 0.29 0.37 0.23 0.05 0.07 0.00 0.03 0.04 0.00 0.00 0.00 0.00 0.00 0.00 0.00 0.00 0.00 0.00 0.00 0.00 0.00 0.00 0.00

GFSSW_prec_precacc24_225.txt.gz
Total_Precipitation_Accumulation
0.03 0.05 0.07 0.06 0.05 0.06 0.06 0.06 0.05 0.05 0.04 0.03 0.03 0.03 0.03 0.04 0.03 0.01 0.00 0.00 0.00 0.00 0.00 0.01 0.02 0.04 0.19 0.23 0.22 0.15 0.04 0.00 0.00 0.00 0.00 0.00 0.00 0.00 0.00 0.00 0.00 0.00 0.00 0.00 0.00
0.02 0.05 0.07 0.05 0.06 0.07 0.07 0.05 0.05 0.04 0.04 0.03 0.03 0.03 0.04 0.04 0.02 0.00 0.00 0.00 0.00 0.01 0.01 0.01 0.02 0.05 0.14 0.20 0.30 0.19 0.05 0.00 0.00 0.00 0.00 0.00 0.00 0.00 0.00 0.00 0.00 0.00 0.00 0.00 0.00
0.02 0.06 0.05 0.05 0.07 0.07 0.06 0.05 0.04 0.04 0.03 0.03 0.04 0.05 0.05 0.05 0.01 0.00 0.01 0.01 0.01 0.03 0.01 0.01 0.02 0.09 0.11 0.17 0.21 0.10 0.02 0.00 0.00 0.00 0.00 0.00 0.00 0.00 0.00 0.00 0.00 0.00 0.00 0.00 0.00
0.04 0.05 0.04 0.06 0.06 0.05 0.05 0.04 0.04 0.02 0.03 0.05 0.06 0.04 0.06 0.08 0.01 0.00 0.02 0.00 0.01 0.02 0.02 0.04 0.09 0.11 0.07 0.08 0.09 0.11 0.02 0.01 0.00 0.00 0.00 0.00 0.00 0.00 0.00 0.00 0.00 0.00 0.00 0.00 0.00
0.06 0.05 0.05 0.06 0.04 0.03 0.03 0.03 0.03 0.04 0.05 0.05 0.04 0.05 0.09 0.06 0.01 0.00 0.00 0.01 0.01 0.04 0.04 0.06 0.07 0.07 0.04 0.01 0.07 0.10 0.05 0.06 0.01 0.00 0.00 0.00 0.00 0.00 0.00 0.00 0.00 0.00 0.00 0.00 0.00
0.05 0.04 0.06 0.05 0.03 0.02 0.02 0.02 0.04 0.05 0.04 0.05 0.05 0.11 0.15 0.05 0.00 0.00 0.00 0.00 0.01 0.03 0.11 0.12 0.06 0.07 0.08 0.02 0.05 0.03 0.05 0.09 0.08 0.05 0.02 0.01 0.00 0.00 0.00 0.00 0.00 0.00 0.00 0.00 0.00
0.05 0.06 0.05 0.03 0.02 0.02 0.02 0.02 0.02 0.03 0.03 0.04 0.07 0.18 0.14 0.02 0.00 0.00 0.01 0.04 0.03 0.06 0.07 0.18 0.24 0.23 0.15 0.10 0.04 0.09 0.17 0.20 0.12 0.14 0.12 0.06 0.01 0.00 0.00 0.00 0.00 0.00 0.00 0.00 0.00
0.05 0.05 0.03 0.02 0.02 0.03 0.03 0.02 0.01 0.01 0.02 0.04 0.09 0.26 0.12 0.00 0.00 0.00 0.00 0.03 0.08 0.13 0.14 0.18 0.40 0.34 0.27 0.19 0.08 0.14 0.22 0.16 0.04 0.13 0.14 0.23 0.12 0.00 0.00 0.00 0.00 0.00 0.00 0.01 0.00
0.06 0.04 0.02 0.01 0.02 0.03 0.03 0.02 0.01 0.00 0.02 0.04 0.07 0.18 0.05 0.00 0.00 0.00 0.00 0.00 0.04 0.16 0.18 0.28 0.42 0.34 0.29 0.22 0.21 0.19 0.12 0.04 0.01 0.02 0.06 0.13 0.09 0.00 0.00 0.00 0.00 0.00 0.00 0.00 0.00
0.05 0.03 0.02 0.02 0.04 0.03 0.04 0.03 0.00 0.00 0.01 0.07 0.14 0.23 0.02 0.00 0.00 0.00 0.00 0.00 0.01 0.11 0.30 0.29 0.29 0.33 0.31 0.32 0.24 0.08 0.02 0.02 0.01 0.01 0.01 0.01 0.00 0.00 0.00 0.00 0.00 0.00 0.00 0.00 0.00
0.04 0.04 0.02 0.05 0.04 0.05 0.06 0.03 0.02 0.05 0.09 0.09 0.10 0.14 0.05 0.01 0.02 0.01 0.01 0.02 0.04 0.10 0.07 0.15 0.20 0.25 0.13 0.12 0.05 0.01 0.01 0.00 0.00 0.00 0.01 0.00 0.00 0.00 0.00 0.01 0.00 0.00 0.00 0.00 0.00
0.04 0.03 0.04 0.03 0.05 0.03 0.07 0.09 0.16 0.36 0.25 0.04 0.06 0.06 0.05 0.02 0.09 0.09 0.09 0.11 0.06 0.05 0.10 0.25 0.12 0.00 0.02 0.05 0.10 0.07 0.04 0.01 0.01 0.01 0.04 0.02 0.00 0.01 0.00 0.00 0.00 0.00 0.00 0.00 0.00
0.03 0.03 0.03 0.03 0.04 0.00 0.01 0.08 0.12 0.25 0.45 0.09 0.01 0.02 0.01 0.07 0.10 0.11 0.14 0.27 0.11 0.08 0.09 0.13 0.04 0.03 0.04 0.14 0.15 0.22 0.16 0.03 0.01 0.02 0.05 0.04 0.03 0.01 0.00 0.00 0.00 0.01 0.00 0.00 0.00
0.04 0.05 0.08 0.11 0.05 0.05 0.06 0.20 0.16 0.30 0.77 0.12 0.02 0.03 0.00 0.05 0.11 0.06 0.12 0.34 0.42 0.08 0.09 0.15 0.06 0.12 0.11 0.12 0.13 0.14 0.16 0.14 0.05 0.07 0.18 0.02 0.01 0.00 0.00 0.00 0.00 0.00 0.00 0.00 0.00
0.04 0.04 0.07 0.23 0.15 0.05 0.06 0.14 0.28 0.49 0.59 0.05 0.06 0.04 0.02 0.05 0.03 0.05 0.17 0.43 0.52 0.33 0.15 0.09 0.03 0.23 0.26 0.11 0.08 0.11 0.04 0.12 0.21 0.16 0.15 0.05 0.03 0.00 0.00 0.00 0.00 0.00 0.00 0.00 0.00
0.03 0.04 0.09 0.10 0.11 0.07 0.08 0.11 0.25 0.67 0.41 0.05 0.07 0.05 0.09 0.09 0.04 0.19 0.31 0.57 0.60 0.65 0.38 0.10 0.05 0.12 0.16 0.07 0.07 0.11 0.28 0.25 0.53 0.61 0.55 0.12 0.02 0.00 0.00 0.00 0.00 0.00 0.00 0.00 0.00
0.02 0.02 0.09 0.12 0.04 0.07 0.15 0.17 0.30 0.31 0.09 0.06 0.08 0.04 0.09 0.19 0.15 0.22 0.88 0.78 0.79 0.85 0.69 0.22 0.08 0.02 0.10 0.18 0.32 0.47 0.60 1.18 1.15 1.19 0.60 0.03 0.04 0.02 0.00 0.00 0.00 0.00 0.00 0.00 0.00
0.01 0.02 0.02 0.03 0.06 0.15 0.17 0.17 0.27 0.08 0.09 0.05 0.04 0.10 0.12 0.19 0.26 0.12 0.32 0.37 0.54 0.61 0.75 0.38 0.18 0.05 0.07 0.12 0.29 0.59 0.41 0.67 0.57 0.39 0.16 0.05 0.08 0.00 0.00 0.00 0.00 0.00 0.00 0.00 0.00
0.01 0.00 0.00 0.01 0.02 0.16 0.13 0.28 0.14 0.14 0.13 0.06 0.05 0.10 0.16 0.23 0.39 0.35 0.16 0.21 0.18 0.41 0.67 0.58 0.09 0.00 0.01 0.02 0.10 0.39 0.55 0.17 0.16 0.14 0.07 0.05 0.01 0.00 0.00 0.00 0.00 0.00 0.00 0.00 0.00
0.00 0.00 0.01 0.00 0.10 0.16 0.13 0.12 0.09 0.10 0.14 0.11 0.18 0.15 0.10 0.24 0.40 0.42 0.40 0.39 0.33 0.13 0.25 0.64 0.45 0.04 0.03 0.11 0.11 0.24 0.33 0.34 0.32 0.15 0.10 0.04 0.00 0.00 0.00 0.00 0.00 0.00 0.00 0.00 0.00
0.01 0.01 0.01 0.03 0.22 0.10 0.11 0.12 0.04 0.04 0.09 0.11 0.16 0.18 0.12 0.24 0.27 0.39 0.64 0.43 0.48 0.39 0.13 0.53 0.80 0.43 0.12 0.13 0.10 0.12 0.54 0.36 0.23 0.07 0.00 0.01 0.00 0.00 0.00 0.00 0.00 0.00 0.00 0.00 0.00
0.00 0.01 0.01 0.04 0.07 0.06 0.07 0.05 0.04 0.03 0.07 0.05 0.05 0.07 0.10 0.05 0.24 0.31 0.35 0.54 0.30 0.33 0.42 0.33 0.70 0.63 0.08 0.01 0.02 0.03 0.04 0.16 0.13 0.14 0.00 0.00 0.00 0.00 0.00 0.00 0.00 0.00 0.00 0.00 0.00
0.00 0.00 0.00 0.02 0.02 0.07 0.05 0.02 0.02 0.01 0.03 0.05 0.04 0.14 0.08 0.06 0.15 0.11 0.14 0.10 0.12 0.28 0.48 0.41 0.77 0.73 0.47 0.19 0.05 0.05 0.05 0.07 0.05 0.05 0.05 0.01 0.00 0.00 0.00 0.00 0.00 0.00 0.00 0.00 0.00
0.00 0.00 0.00 0.01 0.03 0.05 0.08 0.02 0.01 0.01 0.01 0.02 0.03 0.09 0.19 0.09 0.09 0.09 0.18 0.08 0.08 0.30 0.49 0.27 0.26 0.28 0.17 0.10 0.02 0.03 0.00 0.03 0.02 0.02 0.02 0.00 0.00 0.00 0.00 0.00 0.00 0.00 0.00 0.00 0.00
0.00 0.00 0.01 0.02 0.03 0.03 0.14 0.10 0.02 0.04 0.05 0.04 0.02 0.03 0.15 0.27 0.18 0.16 0.21 0.13 0.05 0.10 0.40 0.38 0.11 0.16 0.03 0.01 0.01 0.01 0.01 0.00 0.00 0.00 0.00 0.00 0.00 0.00 0.00 0.00 0.00 0.00 0.00 0.00 0.00
0.01 0.02 0.03 0.02 0.00 0.03 0.19 0.19 0.06 0.05 0.04 0.05 0.05 0.04 0.08 0.10 0.32 0.40 0.35 0.20 0.14 0.14 0.44 0.47 0.16 0.06 0.03 0.00 0.00 0.01 0.03 0.03 0.01 0.00 0.00 0.00 0.00 0.00 0.00 0.00 0.00 0.00 0.00 0.00 0.00
0.01 0.02 0.07 0.01 0.01 0.08 0.23 0.23 0.23 0.24 0.15 0.07 0.04 0.08 0.03 0.06 0.07 0.13 0.24 0.14 0.15 0.24 0.18 0.29 0.25 0.05 0.05 0.01 0.03 0.06 0.01 0.01 0.01 0.00 0.00 0.00 0.00 0.00 0.00 0.00 0.00 0.00 0.00 0.00 0.00

GFSSW_prec_precacc24_228.txt.gz
Total_Precipitation_Accumulation
0.02 0.02 0.05 0.05 0.05 0.06 0.07 0.06 0.05 0.05 0.04 0.04 0.03 0.03 0.03 0.04 0.03 0.01 0.00 0.00 0.00 0.00 0.00 0.01 0.02 0.04 0.20 0.24 0.33 0.29 0.11 0.01 0.00 0.00 0.00 0.00 0.00 0.00 0.00 0.00 0.00 0.00 0.00 0.00 0.00
0.02 0.04 0.05 0.03 0.04 0.06 0.06 0.05 0.04 0.04 0.04 0.03 0.03 0.03 0.04 0.05 0.03 0.00 0.02 0.02 0.00 0.00 0.01 0.01 0.02 0.05 0.15 0.21 0.37 0.42 0.12 0.00 0.00 0.00 0.00 0.00 0.00 0.00 0.00 0.00 0.00 0.00 0.00 0.00 0.00
0.03 0.05 0.04 0.04 0.06 0.05 0.04 0.04 0.03 0.03 0.03 0.03 0.05 0.05 0.04 0.06 0.01 0.00 0.04 0.01 0.02 0.02 0.01 0.01 0.03 0.10 0.12 0.19 0.24 0.20 0.13 0.01 0.00 0.00 0.00 0.00 0.00 0.00 0.00 0.00 0.00 0.00 0.00 0.00 0.00
0.04 0.06 0.04 0.06 0.07 0.04 0.03 0.02 0.02 0.02 0.04 0.06 0.06 0.04 0.05 0.09 0.01 0.00 0.04 0.00 0.00 0.02 0.02 0.04 0.09 0.12 0.07 0.09 0.09 0.13 0.04 0.04 0.01 0.00 0.00 0.00 0.00 0.00 0.00 0.00 0.00 0.00 0.00 0.00 0.00
0.06 0.05 0.05 0.07 0.05 0.03 0.02 0.02 0.02 0.02 0.05 0.06 0.04 0.05 0.11 0.07 0.01 0.00 0.00 0.00 0.00 0.04 0.04 0.06 0.08 0.07 0.04 0.01 0.08 0.11 0.06 0.10 0.05 0.03 0.01 0.00 0.00 0.00 0.00 0.00 0.00 0.00 0.00 0.00 0.00
0.04 0.04 0.06 0.05 0.03 0.02 0.02 0.02 0.02 0.02 0.02 0.05 0.05 0.11 0.17 0.07 0.00 0.00 0.00 0.00 0.01 0.03 0.11 0.12 0.08 0.08 0.08 0.02 0.05 0.03 0.06 0.12 0.16 0.13 0.06 0.01 0.00 0.00 0.00 0.00 0.00 0.00 0.00 0.00 0.00
0.04 0.05 0.05 0.03 0.02 0.02 0.03 0.02 0.02 0.01 0.01 0.03 0.07 0.19 0.16 0.02 0.00 0.00 0.00 0.03 0.03 0.06 0.07 0.18 0.24 0.24 0.16 0.11 0.04 0.10 0.18 0.24 0.17 0.26 0.22 0.09 0.03 0.00 0.00 0.00 0.00 0.00 0.00 0.00 0.00
0.05 0.05 0.03 0.02 0.01 0.03 0.03 0.02 0.01 0.00 0.00 0.01 0.07 0.24 0.11 0.00 0.00 0.00 0.00 0.02 0.08 0.13 0.14 0.18 0.41 0.35 0.27 0.20 0.09 0.14 0.24 0.19 0.04 0.19 0.33 0.35 0.13 0.00 0.00 0.00 0.00 0.00 0.00 0.01 0.01
0.05 0.04 0.02 0.02 0.03 0.03 0.02 0.01 0.00 0.00 0.00 0.00 0.05 0.17 0.05 0.00 0.00 0.00 0.00 0.00 0.04 0.16 0.18 0.28 0.43 0.38 0.30 0.24 0.23 0.21 0.13 0.04 0.01 0.03 0.14 0.36 0.16 0.00 0.00 0.00 0.00 0.00 0.00 0.00 0.01
0.04 0.03 0.01 0.02 0.03 0.02 0.02 0.01 0.00 0.00 0.00 0.03 0.09 0.20 0.02 0.00 0.00 0.00 0.00 0.00 0.01 0.11 0.30 0.29 0.31 0.39 0.35 0.37 0.27 0.09 0.02 0.02 0.01 0.02 0.06 0.05 0.05 0.00 0.00 0.00 0.00 0.00 0.00 0.01 0.02
0.03 0.03 0.02 0.02 0.02 0.01 0.02 0.01 0.02 0.05 0.08 0.08 0.09 0.14 0.05 0.01 0.02 0.01 0.01 0.02 0.04 0.10 0.07 0.15 0.22 0.34 0.17 0.14 0.06 0.01 0.01 0.01 0.00 0.01 0.07 0.02 0.00 0.00 0.00 0.01 0.00 0.00 0.00 0.02 0.04
0.03 0.03 0.02 0.02 0.01 0.01 0.03 0.04 0.14 0.32 0.20 0.03 0.05 0.05 0.04 0.02 0.09 0.09 0.09 0.11 0.06 0.05 0.10 0.25 0.14 0.01 0.05 0.11 0.13 0.08 0.05 0.02 0.01 0.01 0.07 0.05 0.03 0.02 0.01 0.00 0.02 0.00 0.00 0.02 0.06
0.03 0.03 0.02 0.02 0.01 0.00 0.01 0.07 0.10 0.16 0.27 0.05 0.01 0.01 0.01 0.07 0.10 0.11 0.14 0.27 0.11 0.08 0.09 0.13 0.04 0.03 0.05 0.26 0.32 0.28 0.16 0.03 0.02 0.04 0.07 0.07 0.08 0.05 0.01 0.00 0.01 0.04 0.00 0.01 0.01
0.03 0.04 0.06 0.07 0.02 0.04 0.05 0.15 0.11 0.19 0.44 0.06 0.02 0.03 0.00 0.04 0.10 0.06 0.12 0.34 0.42 0.08 0.09 0.15 0.06 0.12 0.11 0.16 0.28 0.33 0.17 0.15 0.07 0.11 0.25 0.07 0.07 0.00 0.00 0.00 0.00 0.03 0.03 0.01 0.00
0.03 0.02 0.04 0.13 0.08 0.03 0.04 0.06 0.13 0.14 0.29 0.03 0.06 0.04 0.02 0.04 0.03 0.05 0.17 0.43 0.52 0.33 0.15 0.10 0.03 0.23 0.26 0.11 0.13 0.23 0.06 0.13 0.22 0.21 0.21 0.15 0.18 0.00 0.00 0.00 0.00 0.00 0.01 0.00 0.00
0.01 0.01 0.03 0.05 0.07 0.06 0.05 0.07 0.15 0.16 0.14 0.05 0.07 0.05 0.09 0.09 0.04 0.19 0.31 0.58 0.60 0.67 0.40 0.10 0.05 0.12 0.16 0.07 0.08 0.17 0.31 0.29 0.57 0.70 0.74 0.15 0.15 0.04 0.00 0.00 0.00 0.00 0.00 0.00 0.00
0.00 0.01 0.03 0.06 0.04 0.06 0.09 0.12 0.12 0.09 0.02 0.05 0.07 0.04 0.09 0.19 0.13 0.22 0.88 0.80 0.80 0.86 0.70 0.22 0.09 0.02 0.13 0.19 0.34 0.50 0.64 1.21 1.21 1.37 0.72 0.03 0.11 0.05 0.00 0.00 0.00 0.00 0.00 0.00 0.00
0.00 0.00 0.00 0.02 0.04 0.11 0.12 0.05 0.09 0.04 0.07 0.04 0.03 0.07 0.12 0.19 0.25 0.12 0.31 0.37 0.56 0.69 0.77 0.39 0.18 0.05 0.10 0.14 0.32 0.60 0.43 0.68 0.62 0.40 0.17 0.05 0.12 0.00 0.00 0.00 0.00 0.00 0.00 0.00 0.00
0.00 0.00 0.00 0.01 0.02 0.14 0.07 0.07 0.06 0.10 0.11 0.06 0.03 0.05 0.09 0.18 0.39 0.35 0.15 0.26 0.26 0.55 0.70 0.60 0.10 0.00 0.01 0.03 0.12 0.44 0.57 0.17 0.20 0.17 0.07 0.05 0.01 0.00 0.00 0.00 0.00 0.00 0.00 0.00 0.00
0.00 0.00 0.01 0.00 0.09 0.13 0.06 0.05 0.03 0.08 0.10 0.05 0.12 0.13 0.08 0.18 0.35 0.41 0.41 0.48 0.51 0.31 0.40 0.75 0.48 0.04 0.04 0.14 0.15 0.31 0.34 0.35 0.36 0.28 0.16 0.05 0.00 0.00 0.00 0.00 0.00 0.00 0.00 0.00 0.00
0.01 0.01 0.01 0.02 0.19 0.07 0.04 0.04 0.03 0.02 0.06 0.09 0.11 0.17 0.12 0.20 0.23 0.35 0.62 0.45 0.57 0.46 0.25 0.62 0.86 0.51 0.16 0.14 0.11 0.17 0.66 0.37 0.25 0.09 0.02 0.02 0.00 0.00 0.00 0.00 0.00 0.00 0.00 0.00 0.00
0.00 0.01 0.01 0.03 0.05 0.03 0.04 0.05 0.02 0.01 0.04 0.04 0.04 0.06 0.11 0.04 0.21 0.28 0.33 0.51 0.30 0.35 0.54 0.41 0.76 0.74 0.14 0.02 0.02 0.03 0.07 0.17 0.15 0.18 0.00 0.00 0.00 0.00 0.00 0.00 0.00 0.00 0.00 0.00 0.00
0.00 0.00 0.00 0.01 0.02 0.06 0.05 0.02 0.02 0.01 0.02 0.04 0.03 0.10 0.07 0.04 0.13 0.10 0.12 0.09 0.11 0.27 0.64 0.65 0.80 0.71 0.57 0.27 0.08 0.07 0.06 0.13 0.06 0.07 0.07 0.01 0.00 0.00 0.00 0.00 0.00 0.00 0.00 0.00 0.00
0.00 0.00 0.00 0.00 0.01 0.03 0.05 0.02 0.01 0.01 0.01 0.01 0.02 0.03 0.04 0.06 0.07 0.08 0.16 0.07 0.06 0.29 0.55 0.39 0.36 0.32 0.17 0.12 0.04 0.06 0.01 0.10 0.07 0.04 0.05 0.01 0.00 0.00 0.00 0.00 0.00 0.00 0.00 0.00 0.00
0.00 0.00 0.00 0.01 0.03 0.02 0.11 0.09 0.02 0.04 0.04 0.04 0.02 0.02 0.10 0.20 0.16 0.10 0.18 0.12 0.04 0.09 0.39 0.37 0.17 0.22 0.06 0.01 0.01 0.01 0.02 0.05 0.07 0.01 0.01 0.02 0.00 0.00 0.00 0.00 0.00 0.00 0.00 0.00 0.00
0.01 0.01 0.02 0.01 0.00 0.02 0.13 0.14 0.06 0.05 0.03 0.05 0.05 0.03 0.07 0.09 0.31 0.38 0.31 0.19 0.13 0.13 0.36 0.37 0.17 0.13 0.11 0.00 0.01 0.01 0.06 0.05 0.03 0.01 0.01 0.01 0.00 0.00 0.00 0.00 0.00 0.00 0.00 0.00 0.00
0.00 0.01 0.04 0.01 0.01 0.04 0.12 0.11 0.11 0.20 0.14 0.07 0.04 0.07 0.03 0.06 0.06 0.12 0.23 0.12 0.13 0.22 0.13 0.21 0.23 0.07 0.14 0.07 0.05 0.08 0.04 0.03 0.02 0.00 0.00 0.01 0.00 0.00 0.00 0.00 0.00 0.00 0.00 0.00 0.00

GFSSW_prec_precacc24_234.txt.gz
Total_Precipitation_Accumulation
0.02 0.02 0.05 0.04 0.03 0.05 0.06 0.04 0.03 0.03 0.03 0.04 0.03 0.04 0.05 0.05 0.04 0.01 0.00 0.00 0.01 0.00 0.00 0.00 0.01 0.03 0.23 0.33 0.52 0.62 0.39 0.08 0.01 0.00 0.01 0.05 0.01 0.00 0.00 0.00 0.00 0.00 0.00 0.00 0.00
0.01 0.03 0.05 0.03 0.04 0.06 0.05 0.03 0.02 0.02 0.03 0.03 0.04 0.06 0.06 0.06 0.03 0.00 0.02 0.08 0.03 0.00 0.00 0.01 0.01 0.05 0.16 0.25 0.53 0.72 0.35 0.04 0.00 0.02 0.02 0.03 0.01 0.01 0.00 0.00 0.00 0.00 0.00 0.00 0.00
0.02 0.04 0.04 0.04 0.06 0.05 0.03 0.03 0.02 0.02 0.02 0.04 0.05 0.06 0.06 0.07 0.02 0.01 0.06 0.03 0.02 0.01 0.01 0.01 0.02 0.10 0.13 0.20 0.31 0.32 0.24 0.05 0.01 0.03 0.08 0.08 0.03 0.00 0.00 0.00 0.00 0.00 0.00 0.00 0.00
0.03 0.05 0.04 0.05 0.06 0.04 0.02 0.02 0.01 0.01 0.03 0.05 0.05 0.04 0.06 0.10 0.01 0.00 0.09 0.04 0.01 0.00 0.01 0.03 0.09 0.12 0.07 0.09 0.10 0.16 0.05 0.09 0.05 0.02 0.05 0.20 0.07 0.02 0.00 0.00 0.00 0.00 0.00 0.00 0.00
0.05 0.04 0.05 0.06 0.04 0.03 0.02 0.01 0.01 0.02 0.04 0.04 0.02 0.04 0.11 0.08 0.02 0.00 0.00 0.00 0.00 0.02 0.02 0.06 0.08 0.07 0.04 0.01 0.08 0.12 0.06 0.10 0.12 0.09 0.09 0.13 0.14 0.02 0.00 0.00 0.00 0.00 0.00 0.00 0.01
0.04 0.03 0.05 0.04 0.02 0.02 0.01 0.01 0.01 0.01 0.01 0.02 0.02 0.07 0.15 0.07 0.00 0.00 0.00 0.00 0.00 0.01 0.10 0.12 0.08 0.08 0.09 0.02 0.06 0.03 0.06 0.12 0.19 0.30 0.26 0.20 0.13 0.10 0.02 0.00 0.00 0.00 0.00 0.00 0.01
0.03 0.04 0.04 0.02 0.02 0.01 0.02 0.01 0.00 0.00 0.00 0.01 0.03 0.13 0.12 0.02 0.00 0.00 0.00 0.00 0.00 0.00 0.04 0.18 0.24 0.24 0.17 0.11 0.04 0.10 0.20 0.26 0.19 0.33 0.42 0.40 0.27 0.10 0.05 0.01 0.00 0.00 0.00 0.00 0.01
0.03 0.04 0.02 0.01 0.02 0.02 0.01 0.01 0.00 0.00 0.00 0.00 0.04 0.17 0.08 0.00 0.00 0.00 0.00 0.00 0.02 0.01 0.03 0.16 0.41 0.35 0.27 0.21 0.10 0.15 0.28 0.24 0.04 0.24 0.48 0.71 0.53 0.06 0.05 0.03 0.00 0.00 0.00 0.01 0.01
0.04 0.03 0.02 0.02 0.02 0.02 0.01 0.00 0.00 0.00 0.00 0.00 0.02 0.11 0.03 0.00 0.00 0.00 0.00 0.00 0.02 0.09 0.11 0.26 0.46 0.42 0.34 0.29 0.28 0.29 0.15 0.05 0.01 0.03 0.23 0.62 0.43 0.07 0.05 0.12 0.04 0.01 0.00 0.01 0.03
0.03 0.02 0.01 0.01 0.02 0.01 0.01 0.00 0.00 0.00 0.00 0.00 0.04 0.11 0.01 0.00 0.00 0.00 0.00 0.00 0.01 0.10 0.30 0.31 0.40 0.51 0.48 0.48 0.31 0.13 0.03 0.02 0.01 0.02 0.12 0.11 0.16 0.09 0.10 0.11 0.15 0.04 0.01 0.02 0.09
0.02 0.02 0.02 0.01 0.01 0.00 0.00 0.00 0.01 0.02 0.00 0.01 0.05 0.11 0.05 0.01 0.02 0.01 0.01 0.01 0.03 0.12 0.11 0.20 0.31 0.41 0.22 0.21 0.07 0.03 0.03 0.02 0.00 0.01 0.10 0.04 0.02 0.10 0.11 0.13 0.20 0.14 0.06 0.04 0.12
0.02 0.02 0.02 0.01 0.00 0.00 0.00 0.01 0.11 0.23 0.12 0.00 0.00 0.00 0.01 0.00 0.03 0.06 0.09 0.11 0.07 0.05 0.11 0.29 0.19 0.01 0.05 0.18 0.24 0.11 0.09 0.04 0.02 0.01 0.09 0.10 0.06 0.04 0.18 0.14 0.21 0.25 0.21 0.08 0.08
0.02 0.02 0.02 0.00 0.00 0.00 0.00 0.03 0.06 0.05 0.06 0.00 0.00 0.00 0.00 0.00 0.00 0.02 0.12 0.25 0.12 0.09 0.10 0.14 0.04 0.03 0.06 0.29 0.45 0.36 0.18 0.04 0.04 0.06 0.10 0.10 0.14 0.16 0.10 0.11 0.15 0.32 0.26 0.28 0.03
0.02 0.02 0.03 0.02 0.00 0.00 0.00 0.02 0.02 0.05 0.03 0.00 0.02 0.03 0.00 0.00 0.00 0.00 0.07 0.31 0.41 0.09 0.11 0.16 0.06 0.12 0.11 0.16 0.34 0.41 0.18 0.16 0.11 0.27 0.33 0.10 0.09 0.02 0.08 0.11 0.10 0.20 0.21 0.61 0.08
0.02 0.01 0.02 0.03 0.01 0.00 0.00 0.00 0.03 0.04 0.03 0.00 0.04 0.03 0.02 0.02 0.01 0.04 0.04 0.32 0.49 0.34 0.15 0.10 0.03 0.22 0.26 0.11 0.16 0.30 0.12 0.14 0.25 0.39 0.44 0.21 0.22 0.00 0.00 0.02 0.07 0.03 0.06 0.33 0.21
0.01 0.00 0.01 0.00 0.00 0.01 0.00 0.00 0.02 0.02 0.01 0.00 0.03 0.02 0.05 0.07 0.02 0.17 0.25 0.37 0.51 0.61 0.37 0.07 0.06 0.12 0.16 0.07 0.09 0.22 0.53 0.36 0.61 0.82 1.15 0.31 0.17 0.05 0.00 0.00 0.00 0.00 0.00 0.06 0.20
0.00 0.00 0.00 0.02 0.01 0.00 0.00 0.00 0.00 0.01 0.00 0.01 0.00 0.00 0.02 0.09 0.03 0.16 0.76 0.70 0.74 0.80 0.67 0.19 0.08 0.02 0.13 0.19 0.35 0.55 0.93 1.56 1.45 1.56 0.94 0.10 0.20 0.07 0.00 0.00 0.00 0.00 0.00 0.00 0.06
0.00 0.00 0.00 0.00 0.00 0.00 0.01 0.00 0.00 0.00 0.01 0.00 0.00 0.00 0.02 0.06 0.13 0.05 0.17 0.33 0.56 0.71 0.77 0.35 0.16 0.04 0.10 0.15 0.32 0.63 0.54 0.95 0.80 0.46 0.19 0.11 0.29 0.00 0.00 0.00 0.00 0.00 0.00 0.00 0.02
0.00 0.00 0.00 0.00 0.00 0.00 0.00 0.00 0.00 0.02 0.01 0.01 0.00 0.01 0.02 0.04 0.28 0.28 0.09 0.19 0.31 0.67 0.82 0.59 0.14 0.02 0.01 0.03 0.13 0.47 0.63 0.23 0.47 0.23 0.10 0.07 0.01 0.00 0.00 0.00 0.00 0.00 0.00 0.00 0.01
0.00 0.00 0.00 0.00 0.01 0.00 0.00 0.00 0.00 0.01 0.01 0.02 0.06 0.07 0.04 0.07 0.21 0.33 0.33 0.46 0.52 0.37 0.59 0.77 0.57 0.06 0.05 0.15 0.16 0.32 0.36 0.42 0.51 0.55 0.22 0.05 0.00 0.00 0.00 0.00 0.00 0.00 0.00 0.00 0.00
0.00 0.00 0.00 0.00 0.00 0.00 0.00 0.00 0.00 0.00 0.00 0.03 0.06 0.09 0.04 0.04 0.12 0.24 0.54 0.45 0.58 0.46 0.29 0.71 0.91 0.54 0.20 0.15 0.13 0.19 0.74 0.39 0.26 0.23 0.17 0.06 0.01 0.00 0.00 0.00 0.00 0.00 0.00 0.00 0.00
0.00 0.00 0.00 0.00 0.00 0.00 0.00 0.01 0.00 0.00 0.00 0.01 0.02 0.07 0.12 0.02 0.07 0.22 0.25 0.41 0.29 0.33 0.50 0.48 0.82 0.79 0.18 0.02 0.02 0.04 0.09 0.19 0.16 0.20 0.03 0.05 0.04 0.00 0.00 0.00 0.00 0.00 0.00 0.00 0.00
0.00 0.00 0.00 0.00 0.00 0.00 0.00 0.00 0.00 0.00 0.00 0.01 0.01 0.08 0.04 0.00 0.06 0.03 0.05 0.05 0.08 0.20 0.67 0.76 0.84 0.82 0.76 0.39 0.09 0.11 0.10 0.14 0.06 0.08 0.08 0.02 0.01 0.00 0.00 0.00 0.00 0.00 0.00 0.00 0.00
0.00 0.00 0.00 0.00 0.00 0.01 0.03 0.00 0.00 0.00 0.00 0.00 0.01 0.01 0.00 0.00 0.01 0.02 0.07 0.04 0.05 0.17 0.49 0.50 0.51 0.43 0.35 0.28 0.08 0.10 0.05 0.12 0.08 0.05 0.05 0.01 0.00 0.00 0.00 0.00 0.00 0.00 0.00 0.00 0.00
0.00 0.00 0.00 0.00 0.00 0.00 0.03 0.02 0.00 0.01 0.00 0.00 0.01 0.01 0.07 0.05 0.01 0.03 0.10 0.06 0.01 0.02 0.22 0.36 0.22 0.26 0.06 0.01 0.02 0.02 0.03 0.06 0.10 0.02 0.02 0.02 0.00 0.00 0.00 0.00 0.00 0.00 0.00 0.00 0.00
0.00 0.00 0.00 0.00 0.00 0.00 0.03 0.01 0.01 0.01 0.02 0.03 0.03 0.00 0.01 0.05 0.22 0.17 0.22 0.15 0.09 0.09 0.27 0.33 0.18 0.15 0.20 0.01 0.05 0.06 0.15 0.13 0.14 0.04 0.01 0.01 0.01 0.00 0.00 0.00 0.00 0.00 0.00 0.00 0.00
0.00 0.00 0.01 0.01 0.01 0.02 0.03 0.01 0.00 0.01 0.03 0.04 0.02 0.03 0.00 0.02 0.04 0.05 0.17 0.11 0.11 0.23 0.15 0.18 0.25 0.16 0.33 0.14 0.21 0.37 0.37 0.15 0.13 0.04 0.01 0.01 0.01 0.00 0.00 0.00 0.00 0.00 0.00 0.00 0.00

GFSSW_prec_precacc24_237.txt.gz
Total_Precipitation_Accumulation
0.01 0.01 0.03 0.03 0.03 0.04 0.05 0.04 0.04 0.03 0.03 0.03 0.03 0.04 0.06 0.07 0.04 0.01 0.00 0.00 0.01 0.01 0.00 0.00 0.00 0.01 0.18 0.32 0.57 0.75 0.53 0.13 0.01 0.00 0.01 0.06 0.03 0.00 0.00 0.00 0.00 0.00 0.00 0.00 0.00
0.01 0.02 0.04 0.03 0.03 0.05 0.05 0.03 0.02 0.02 0.03 0.03 0.04 0.05 0.06 0.06 0.03 0.00 0.02 0.08 0.04 0.00 0.00 0.01 0.00 0.03 0.14 0.24 0.58 0.80 0.41 0.09 0.01 0.02 0.03 0.07 0.04 0.01 0.01 0.00 0.00 0.00 0.00 0.00 0.00
0.01 0.04 0.04 0.04 0.06 0.05 0.03 0.02 0.01 0.02 0.02 0.04 0.05 0.06 0.05 0.06 0.02 0.02 0.06 0.04 0.04 0.01 0.01 0.01 0.01 0.06 0.12 0.20 0.33 0.36 0.26 0.06 0.01 0.05 0.14 0.12 0.09 0.05 0.01 0.00 0.00 0.01 0.01 0.01 0.00
0.03 0.04 0.03 0.05 0.06 0.03 0.02 0.01 0.01 0.01 0.03 0.05 0.05 0.04 0.05 0.09 0.01 0.01 0.09 0.05 0.03 0.00 0.01 0.02 0.06 0.08 0.06 0.09 0.10 0.17 0.05 0.11 0.06 0.03 0.10 0.23 0.17 0.09 0.02 0.00 0.00 0.01 0.04 0.02 0.01
0.04 0.03 0.04 0.05 0.03 0.02 0.02 0.01 0.01 0.02 0.03 0.03 0.02 0.04 0.10 0.07 0.01 0.00 0.00 0.00 0.00 0.02 0.02 0.05 0.06 0.05 0.03 0.01 0.08 0.13 0.07 0.12 0.14 0.11 0.10 0.18 0.21 0.14 0.04 0.00 0.00 0.01 0.02 0.02 0.01
0.03 0.03 0.04 0.04 0.02 0.01 0.01 0.01 0.01 0.01 0.01 0.02 0.02 0.06 0.14 0.07 0.00 0.00 0.00 0.00 0.00 0.01 0.09 0.09 0.06 0.06 0.07 0.02 0.06 0.03 0.06 0.12 0.19 0.31 0.28 0.22 0.20 0.18 0.07 0.01 0.00 0.01 0.03 0.03 0.04
0.03 0.03 0.04 0.02 0.02 0.01 0.01 0.01 0.00 0.00 0.00 0.01 0.03 0.11 0.11 0.02 0.00 0.00 0.00 0.00 0.00 0.00 0.03 0.14 0.18 0.21 0.14 0.10 0.04 0.09 0.19 0.26 0.19 0.33 0.45 0.44 0.31 0.30 0.08 0.12 0.06 0.01 0.02 0.06 0.06
0.03 0.04 0.02 0.01 0.01 0.02 0.01 0.00 0.00 0.00 0.00 0.00 0.04 0.13 0.06 0.00 0.00 0.00 0.00 0.00 0.00 0.00 0.01 0.07 0.29 0.31 0.26 0.21 0.09 0.15 0.28 0.24 0.04 0.24 0.51 0.82 0.55 0.08 0.11 0.22 0.09 0.01 0.06 0.08 0.04
0.03 0.03 0.02 0.01 0.02 0.02 0.01 0.00 0.00 0.00 0.00 0.00 0.01 0.07 0.03 0.00 0.00 0.00 0.00 0.00 0.00 0.01 0.03 0.15 0.39 0.40 0.34 0.28 0.27 0.30 0.15 0.05 0.01 0.03 0.26 0.67 0.45 0.07 0.07 0.29 0.13 0.03 0.05 0.12 0.04
0.03 0.02 0.01 0.01 0.01 0.01 0.00 0.00 0.00 0.00 0.00 0.00 0.01 0.05 0.01 0.00 0.00 0.00 0.00 0.00 0.01 0.06 0.16 0.17 0.32 0.46 0.47 0.48 0.31 0.13 0.04 0.02 0.01 0.02 0.12 0.12 0.16 0.09 0.10 0.19 0.33 0.07 0.04 0.13 0.15
0.02 0.02 0.01 0.01 0.01 0.00 0.00 0.00 0.01 0.02 0.00 0.00 0.02 0.04 0.01 0.01 0.01 0.00 0.00 0.01 0.03 0.09 0.09 0.20 0.38 0.33 0.20 0.21 0.07 0.03 0.04 0.03 0.00 0.01 0.10 0.04 0.02 0.10 0.12 0.15 0.33 0.26 0.10 0.15 0.23
0.02 0.02 0.02 0.00 0.00 0.00 0.00 0.00 0.09 0.17 0.07 0.00 0.00 0.00 0.00 0.00 0.00 0.00 0.00 0.04 0.05 0.05 0.08 0.28 0.22 0.01 0.04 0.18 0.24 0.11 0.09 0.05 0.03 0.01 0.09 0.10 0.07 0.05 0.18 0.15 0.25 0.48 0.34 0.25 0.24
0.01 0.02 0.02 0.00 0.00 0.00 0.00 0.00 0.02 0.04 0.04 0.00 0.00 0.00 0.00 0.00 0.00 0.00 0.01 0.13 0.07 0.07 0.09 0.14 0.04 0.03 0.06 0.29 0.47 0.38 0.18 0.04 0.04 0.06 0.10 0.11 0.16 0.21 0.11 0.11 0.16 0.43 0.42 0.68 0.38
0.02 0.02 0.03 0.01 0.00 0.00 0.00 0.00 0.00 0.03 0.02 0.00 0.01 0.03 0.00 0.00 0.00 0.00 0.01 0.22 0.32 0.06 0.09 0.13 0.05 0.11 0.11 0.16 0.34 0.44 0.18 0.16 0.12 0.31 0.35 0.10 0.09 0.03 0.09 0.11 0.10 0.21 0.30 0.87 0.41
0.02 0.01 0.01 0.02 0.00 0.00 0.00 0.00 0.00 0.01 0.01 0.00 0.02 0.02 0.01 0.01 0.01 0.04 0.00 0.11 0.37 0.31 0.10 0.08 0.03 0.22 0.25 0.11 0.17 0.30 0.12 0.14 0.27 0.61 0.52 0.22 0.23 0.00 0.01 0.03 0.07 0.03 0.07 0.41 0.66
0.01 0.00 0.01 0.00 0.00 0.00 0.00 0.00 0.00 0.00 0.00 0.00 0.01 0.00 0.00 0.03 0.02 0.13 0.20 0.12 0.32 0.53 0.34 0.06 0.04 0.09 0.16 0.07 0.09 0.20 0.51 0.37 0.63 0.95 1.37 0.32 0.19 0.05 0.00 0.00 0.00 0.00 0.00 0.07 0.50
0.00 0.00 0.00 0.00 0.00 0.00 0.00 0.00 0.00 0.00 0.00 0.00 0.00 0.00 0.00 0.03 0.02 0.14 0.72 0.60 0.35 0.62 0.56 0.16 0.06 0.02 0.11 0.18 0.33 0.53 0.89 1.49 1.36 1.56 0.99 0.12 0.25 0.08 0.00 0.00 0.00 0.00 0.00 0.00 0.18
0.00 0.00 0.00 0.00 0.00 0.00 0.00 0.00 0.00 0.00 0.00 0.00 0.00 0.00 0.02 0.04 0.06 0.04 0.15 0.26 0.36 0.55 0.74 0.31 0.13 0.03 0.09 0.14 0.32 0.63 0.52 0.93 0.77 0.45 0.19 0.13 0.38 0.00 0.00 0.00 0.00 0.00 0.00 0.00 0.04
0.00 0.00 0.00 0.00 0.00 0.00 0.00 0.00 0.00 0.00 0.01 0.01 0.00 0.00 0.01 0.01 0.22 0.26 0.08 0.17 0.30 0.63 0.78 0.57 0.12 0.03 0.01 0.03 0.13 0.46 0.63 0.24 0.47 0.23 0.10 0.07 0.02 0.00 0.00 0.00 0.00 0.00 0.00 0.00 0.01
0.00 0.00 0.00 0.00 0.00 0.00 0.00 0.00 0.00 0.00 0.00 0.02 0.05 0.03 0.02 0.01 0.06 0.31 0.32 0.45 0.48 0.34 0.56 0.73 0.58 0.08 0.12 0.13 0.15 0.31 0.36 0.42 0.51 0.55 0.23 0.05 0.00 0.00 0.00 0.00 0.00 0.00 0.00 0.00 0.00
0.00 0.00 0.00 0.00 0.00 0.00 0.00 0.00 0.00 0.00 0.00 0.02 0.03 0.08 0.04 0.04 0.04 0.20 0.52 0.43 0.57 0.46 0.28 0.60 0.73 0.47 0.23 0.14 0.12 0.21 0.74 0.38 0.26 0.25 0.22 0.07 0.02 0.00 0.00 0.00 0.00 0.00 0.00 0.00 0.00
0.00 0.00 0.00 0.00 0.00 0.00 0.00 0.00 0.00 0.00 0.00 0.00 0.01 0.06 0.11 0.01 0.01 0.13 0.22 0.38 0.27 0.31 0.50 0.47 0.63 0.64 0.18 0.05 0.03 0.05 0.09 0.19 0.16 0.24 0.13 0.12 0.04 0.00 0.00 0.00 0.00 0.00 0.00 0.00 0.01
0.00 0.00 0.00 0.00 0.00 0.00 0.00 0.00 0.00 0.00 0.00 0.00 0.00 0.07 0.03 0.00 0.03 0.01 0.03 0.03 0.08 0.20 0.67 0.76 0.77 0.74 0.68 0.42 0.12 0.12 0.10 0.14 0.08 0.12 0.19 0.18 0.02 0.00 0.00 0.00 0.00 0.00 0.00 0.02 0.02
0.00 0.00 0.00 0.00 0.00 0.01 0.02 0.00 0.00 0.00 0.00 0.00 0.01 0.01 0.00 0.00 0.01 0.01 0.03 0.03 0.05 0.16 0.46 0.47 0.51 0.45 0.36 0.31 0.15 0.11 0.05 0.12 0.12 0.11 0.13 0.10 0.00 0.00 0.00 0.00 0.00 0.00 0.00 0.04 0.06
0.00 0.00 0.00 0.00 0.00 0.00 0.02 0.01 0.00 0.00 0.00 0.00 0.01 0.01 0.06 0.05 0.01 0.02 0.07 0.04 0.01 0.02 0.09 0.28 0.22 0.26 0.06 0.01 0.02 0.03 0.03 0.06 0.11 0.05 0.05 0.04 0.01 0.00 0.00 0.00 0.00 0.00 0.00 0.01 0.05
0.00 0.00 0.00 0.00 0.00 0.00 0.02 0.01 0.00 0.00 0.00 0.01 0.02 0.00 0.00 0.04 0.18 0.12 0.10 0.12 0.09 0.09 0.05 0.12 0.17 0.14 0.20 0.02 0.06 0.06 0.16 0.15 0.15 0.06 0.01 0.01 0.01 0.00 0.00 0.00 0.00 0.00 0.00 0.00 0.01
0.00 0.00 0.01 0.01 0.00 0.00 0.01 0.00 0.00 0.00 0.00 0.01 0.01 0.03 0.00 0.01 0.01 0.01 0.01 0.06 0.10 0.22 0.14 0.12 0.26 0.17 0.34 0.16 0.27 0.46 0.47 0.22 0.15 0.11 0.01 0.01 0.01 0.00 0.00 0.00 0.00 0.00 0.00 0.00 0.00

GFSSW_prec_precacc24_240.txt.gz
Total_Precipitation_Accumulation
0.01 0.01 0.03 0.03 0.02 0.04 0.05 0.03 0.02 0.02 0.02 0.03 0.03 0.04 0.05 0.06 0.03 0.01 0.00 0.00 0.01 0.02 0.03 0.00 0.00 0.00 0.12 0.25 0.58 0.83 0.59 0.15 0.04 0.01 0.02 0.06 0.04 0.02 0.00 0.00 0.00 0.00 0.00 0.02 0.03
0.01 0.02 0.04 0.03 0.03 0.05 0.04 0.02 0.02 0.02 0.02 0.02 0.03 0.05 0.06 0.06 0.03 0.00 0.03 0.08 0.04 0.02 0.00 0.01 0.00 0.01 0.11 0.19 0.57 0.87 0.44 0.10 0.02 0.02 0.03 0.09 0.05 0.04 0.03 0.00 0.00 0.00 0.00 0.03 0.03
0.01 0.03 0.03 0.03 0.05 0.04 0.02 0.02 0.01 0.02 0.02 0.04 0.05 0.05 0.05 0.05 0.02 0.02 0.07 0.04 0.08 0.03 0.01 0.01 0.02 0.05 0.08 0.18 0.33 0.40 0.27 0.07 0.02 0.05 0.15 0.16 0.17 0.10 0.04 0.00 0.00 0.02 0.05 0.08 0.08
0.02 0.04 0.02 0.04 0.04 0.02 0.02 0.01 0.01 0.01 0.03 0.05 0.04 0.03 0.04 0.08 0.01 0.01 0.09 0.05 0.03 0.00 0.01 0.02 0.05 0.07 0.05 0.08 0.10 0.19 0.06 0.12 0.07 0.06 0.14 0.25 0.22 0.17 0.06 0.01 0.00 0.08 0.12 0.14 0.14
0.03 0.03 0.03 0.04 0.03 0.02 0.01 0.01 0.01 0.01 0.03 0.03 0.02 0.03 0.08 0.06 0.01 0.00 0.00 0.00 0.00 0.01 0.02 0.05 0.06 0.04 0.03 0.02 0.09 0.13 0.07 0.12 0.15 0.15 0.18 0.28 0.23 0.22 0.18 0.03 0.00 0.04 0.09 0.10 0.16
0.03 0.02 0.03 0.03 0.01 0.01 0.01 0.01 0.00 0.00 0.01 0.02 0.02 0.05 0.11 0.06 0.00 0.00 0.00 0.00 0.00 0.01 0.09 0.09 0.06 0.05 0.06 0.02 0.06 0.03 0.06 0.12 0.19 0.33 0.34 0.40 0.30 0.23 0.16 0.05 0.01 0.01 0.05 0.08 0.12
0.02 0.02 0.03 0.01 0.01 0.01 0.01 0.00 0.00 0.00 0.00 0.01 0.03 0.09 0.09 0.02 0.00 0.00 0.00 0.00 0.00 0.00 0.03 0.14 0.16 0.15 0.12 0.08 0.03 0.09 0.19 0.26 0.19 0.33 0.47 0.52 0.45 0.36 0.12 0.28 0.11 0.01 0.04 0.10 0.12
0.02 0.03 0.01 0.01 0.01 0.02 0.01 0.00 0.00 0.00 0.00 0.00 0.03 0.09 0.05 0.00 0.00 0.00 0.00 0.00 0.00 0.00 0.01 0.03 0.16 0.17 0.18 0.17 0.09 0.14 0.27 0.23 0.04 0.24 0.52 0.88 0.61 0.08 0.12 0.37 0.25 0.04 0.08 0.13 0.08
0.03 0.02 0.01 0.01 0.02 0.02 0.00 0.00 0.00 0.00 0.00 0.00 0.00 0.04 0.02 0.00 0.00 0.00 0.00 0.00 0.00 0.00 0.02 0.04 0.25 0.30 0.25 0.22 0.23 0.29 0.15 0.05 0.01 0.03 0.27 0.69 0.46 0.07 0.08 0.36 0.33 0.11 0.06 0.19 0.11
0.02 0.02 0.01 0.01 0.01 0.01 0.00 0.00 0.00 0.00 0.00 0.00 0.00 0.02 0.00 0.00 0.00 0.00 0.00 0.00 0.01 0.04 0.08 0.08 0.24 0.39 0.38 0.39 0.25 0.13 0.04 0.02 0.01 0.02 0.12 0.12 0.16 0.09 0.11 0.19 0.45 0.23 0.05 0.17 0.22
0.02 0.01 0.01 0.01 0.01 0.00 0.00 0.00 0.01 0.01 0.00 0.00 0.00 0.01 0.00 0.01 0.01 0.00 0.00 0.01 0.02 0.07 0.07 0.15 0.33 0.31 0.19 0.19 0.06 0.03 0.05 0.04 0.00 0.01 0.10 0.04 0.02 0.10 0.13 0.16 0.38 0.40 0.13 0.16 0.31
0.01 0.01 0.01 0.00 0.00 0.00 0.00 0.00 0.06 0.11 0.04 0.00 0.00 0.00 0.00 0.00 0.00 0.00 0.00 0.01 0.04 0.05 0.07 0.19 0.18 0.01 0.04 0.18 0.23 0.11 0.09 0.05 0.03 0.01 0.09 0.10 0.07 0.05 0.19 0.16 0.26 0.58 0.42 0.26 0.30
0.01 0.02 0.01 0.00 0.00 0.00 0.00 0.00 0.00 0.02 0.04 0.00 0.00 0.00 0.00 0.00 0.00 0.00 0.00 0.01 0.03 0.04 0.08 0.12 0.03 0.02 0.05 0.25 0.47 0.36 0.18 0.04 0.04 0.06 0.10 0.11 0.16 0.23 0.14 0.14 0.17 0.47 0.59 0.72 0.49
0.01 0.01 0.01 0.00 0.00 0.00 0.00 0.00 0.00 0.01 0.02 0.00 0.01 0.01 0.00 0.00 0.00 0.00 0.00 0.01 0.08 0.05 0.07 0.11 0.03 0.08 0.06 0.08 0.28 0.43 0.18 0.16 0.12 0.32 0.36 0.10 0.09 0.03 0.11 0.12 0.10 0.21 0.37 0.94 0.45
0.01 0.00 0.00 0.01 0.00 0.00 0.00 0.00 0.00 0.00 0.01 0.00 0.01 0.01 0.00 0.00 0.01 0.03 0.00 0.02 0.06 0.14 0.07 0.07 0.02 0.18 0.21 0.05 0.11 0.27 0.14 0.15 0.27 0.61 0.53 0.22 0.24 0.00 0.01 0.03 0.07 0.03 0.08 0.46 0.70
0.00 0.00 0.00 0.00 0.00 0.00 0.00 0.00 0.00 0.00 0.00 0.00 0.00 0.00 0.00 0.00 0.01 0.06 0.12 0.07 0.08 0.32 0.26 0.03 0.03 0.05 0.16 0.06 0.08 0.19 0.51 0.36 0.61 0.91 1.35 0.33 0.19 0.05 0.00 0.00 0.00 0.00 0.00 0.08 0.53
0.00 0.00 0.00 0.00 0.00 0.00 0.00 0.00 0.00 0.00 0.00 0.00 0.00 0.00 0.00 0.00 0.01 0.14 0.61 0.56 0.21 0.32 0.35 0.09 0.03 0.01 0.09 0.17 0.31 0.48 0.85 1.44 1.26 1.47 1.00 0.18 0.28 0.08 0.00 0.00 0.00 0.00 0.00 0.00 0.19
0.00 0.00 0.00 0.00 0.00 0.00 0.00 0.00 0.00 0.00 0.00 0.00 0.00 0.00 0.00 0.00 0.03 0.03 0.15 0.24 0.31 0.37 0.46 0.27 0.07 0.02 0.07 0.12 0.32 0.61 0.51 0.89 0.74 0.44 0.19 0.14 0.40 0.00 0.00 0.00 0.00 0.00 0.00 0.00 0.04
0.00 0.00 0.00 0.00 0.00 0.00 0.00 0.00 0.00 0.00 0.00 0.00 0.00 0.00 0.00 0.00 0.13 0.20 0.08 0.18 0.25 0.48 0.48 0.46 0.12 0.03 0.01 0.01 0.11 0.45 0.62 0.24 0.48 0.23 0.10 0.07 0.02 0.00 0.00 0.00 0.00 0.00 0.00 0.00 0.01
0.00 0.00 0.00 0.00 0.00 0.00 0.00 0.00 0.00 0.00 0.00 0.01 0.04 0.02 0.02 0.01 0.02 0.25 0.30 0.46 0.48 0.32 0.45 0.55 0.58 0.09 0.12 0.10 0.13 0.30 0.34 0.40 0.45 0.55 0.23 0.05 0.00 0.00 0.00 0.00 0.00 0.00 0.00 0.00 0.00
0.00 0.00 0.00 0.00 0.00 0.00 0.00 0.00 0.00 0.00 0.00 0.02 0.02 0.07 0.03 0.03 0.02 0.16 0.43 0.41 0.56 0.45 0.23 0.47 0.72 0.42 0.20 0.09 0.11 0.19 0.69 0.38 0.25 0.25 0.22 0.07 0.02 0.00 0.00 0.00 0.00 0.00 0.00 0.00 0.00
0.00 0.00 0.00 0.00 0.00 0.00 0.00 0.00 0.00 0.00 0.00 0.00 0.01 0.05 0.10 0.00 0.01 0.04 0.17 0.35 0.26 0.31 0.48 0.43 0.54 0.60 0.20 0.06 0.03 0.05 0.10 0.19 0.16 0.23 0.13 0.13 0.04 0.00 0.00 0.00 0.00 0.00 0.00 0.00 0.01
0.00 0.00 0.00 0.00 0.00 0.00 0.00 0.00 0.00 0.00 0.00 0.00 0.00 0.07 0.03 0.00 0.02 0.00 0.02 0.02 0.07 0.18 0.66 0.74 0.64 0.66 0.62 0.47 0.15 0.11 0.11 0.15 0.09 0.12 0.19 0.20 0.03 0.00 0.00 0.00 0.00 0.00 0.00 0.02 0.02
0.00 0.00 0.00 0.00 0.00 0.00 0.01 0.00 0.00 0.00 0.00 0.00 0.01 0.01 0.00 0.00 0.00 0.01 0.03 0.02 0.04 0.15 0.41 0.45 0.50 0.45 0.33 0.29 0.19 0.10 0.06 0.12 0.12 0.13 0.15 0.15 0.02 0.00 0.00 0.00 0.00 0.00 0.01 0.07 0.10
0.00 0.00 0.00 0.00 0.00 0.00 0.01 0.01 0.00 0.00 0.00 0.00 0.00 0.00 0.05 0.05 0.00 0.01 0.04 0.01 0.00 0.02 0.07 0.26 0.22 0.26 0.06 0.01 0.04 0.03 0.03 0.07 0.12 0.10 0.12 0.08 0.12 0.01 0.00 0.00 0.00 0.00 0.01 0.06 0.10
0.00 0.00 0.00 0.00 0.00 0.00 0.01 0.00 0.00 0.00 0.00 0.00 0.01 0.00 0.00 0.04 0.08 0.05 0.05 0.05 0.06 0.08 0.04 0.07 0.16 0.15 0.20 0.03 0.08 0.09 0.17 0.18 0.21 0.11 0.02 0.02 0.08 0.01 0.00 0.00 0.00 0.00 0.00 0.03 0.03
0.00 0.00 0.00 0.00 0.00 0.00 0.00 0.00 0.00 0.00 0.00 0.00 0.00 0.01 0.00 0.01 0.00 0.00 0.00 0.02 0.05 0.18 0.15 0.08 0.18 0.17 0.34 0.17 0.36 0.48 0.52 0.28 0.17 0.16 0.01 0.01 0.02 0.00 0.00 0.00 0.00 0.00 0.00 0.00 0.00

GFSSW_prec_precacc24_243.txt.gz
Total_Precipitation_Accumulation
0.01 0.01 0.03 0.03 0.02 0.03 0.04 0.03 0.02 0.01 0.02 0.03 0.02 0.03 0.05 0.06 0.03 0.00 0.00 0.00 0.02 0.05 0.04 0.00 0.00 0.00 0.08 0.21 0.59 0.92 0.66 0.16 0.05 0.02 0.02 0.06 0.04 0.02 0.00 0.00 0.00 0.00 0.00 0.07 0.23
0.01 0.02 0.03 0.02 0.02 0.04 0.03 0.02 0.01 0.01 0.02 0.02 0.03 0.05 0.05 0.06 0.02 0.00 0.04 0.10 0.07 0.09 0.01 0.01 0.00 0.01 0.09 0.15 0.53 0.93 0.47 0.10 0.02 0.03 0.03 0.10 0.07 0.06 0.04 0.00 0.00 0.01 0.03 0.18 0.19
0.01 0.02 0.02 0.02 0.04 0.03 0.02 0.02 0.01 0.01 0.02 0.03 0.05 0.04 0.04 0.04 0.01 0.02 0.07 0.04 0.08 0.04 0.01 0.01 0.02 0.06 0.07 0.14 0.29 0.44 0.29 0.07 0.03 0.06 0.16 0.20 0.26 0.11 0.06 0.01 0.01 0.06 0.15 0.17 0.20
0.01 0.03 0.02 0.02 0.03 0.01 0.01 0.01 0.00 0.01 0.03 0.05 0.03 0.03 0.03 0.06 0.01 0.01 0.09 0.05 0.03 0.00 0.01 0.02 0.04 0.09 0.06 0.07 0.08 0.21 0.08 0.13 0.08 0.09 0.17 0.31 0.41 0.25 0.09 0.02 0.00 0.11 0.28 0.25 0.19
0.01 0.02 0.02 0.03 0.02 0.01 0.01 0.00 0.00 0.01 0.02 0.03 0.02 0.02 0.07 0.04 0.01 0.00 0.00 0.00 0.00 0.00 0.01 0.04 0.07 0.05 0.07 0.02 0.08 0.12 0.07 0.15 0.17 0.19 0.21 0.31 0.33 0.47 0.24 0.04 0.00 0.08 0.22 0.25 0.31
0.01 0.01 0.02 0.02 0.01 0.01 0.01 0.00 0.00 0.00 0.00 0.01 0.01 0.03 0.09 0.05 0.00 0.00 0.00 0.00 0.00 0.00 0.04 0.08 0.08 0.07 0.06 0.02 0.07 0.04 0.06 0.12 0.19 0.33 0.36 0.43 0.35 0.42 0.38 0.16 0.01 0.02 0.13 0.20 0.26
0.01 0.02 0.02 0.01 0.01 0.01 0.01 0.00 0.00 0.00 0.00 0.01 0.01 0.05 0.07 0.01 0.00 0.00 0.00 0.00 0.00 0.00 0.02 0.10 0.13 0.14 0.08 0.06 0.03 0.08 0.18 0.23 0.18 0.33 0.46 0.54 0.50 0.46 0.28 0.52 0.13 0.01 0.07 0.16 0.25
0.01 0.02 0.01 0.01 0.01 0.01 0.01 0.00 0.00 0.00 0.00 0.00 0.01 0.06 0.04 0.00 0.00 0.00 0.00 0.00 0.00 0.00 0.01 0.05 0.10 0.12 0.09 0.10 0.06 0.12 0.26 0.23 0.04 0.24 0.53 0.90 0.63 0.10 0.17 0.56 0.42 0.05 0.09 0.14 0.14
0.02 0.01 0.01 0.01 0.01 0.02 0.00 0.00 0.00 0.00 0.00 0.00 0.00 0.02 0.01 0.00 0.00 0.00 0.00 0.00 0.00 0.00 0.03 0.01 0.12 0.26 0.18 0.14 0.16 0.23 0.16 0.05 0.01 0.03 0.28 0.69 0.46 0.09 0.10 0.42 0.56 0.20 0.06 0.19 0.15
0.02 0.01 0.01 0.01 0.01 0.01 0.00 0.00 0.00 0.00 0.00 0.00 0.00 0.00 0.00 0.00 0.00 0.00 0.00 0.00 0.01 0.04 0.07 0.04 0.17 0.34 0.32 0.30 0.15 0.10 0.05 0.02 0.01 0.02 0.12 0.12 0.16 0.11 0.11 0.20 0.54 0.41 0.08 0.18 0.25
0.01 0.01 0.01 0.01 0.01 0.00 0.00 0.00 0.00 0.00 0.00 0.00 0.00 0.00 0.00 0.00 0.00 0.00 0.00 0.01 0.02 0.06 0.06 0.09 0.28 0.29 0.17 0.13 0.03 0.03 0.05 0.04 0.00 0.01 0.10 0.05 0.04 0.11 0.15 0.19 0.43 0.55 0.25 0.18 0.35
0.01 0.01 0.01 0.00 0.00 0.00 0.00 0.00 0.04 0.06 0.03 0.00 0.00 0.00 0.00 0.00 0.00 0.00 0.00 0.01 0.03 0.04 0.06 0.12 0.15 0.01 0.04 0.16 0.18 0.07 0.08 0.05 0.03 0.01 0.09 0.10 0.07 0.06 0.21 0.18 0.28 0.61 0.63 0.35 0.34
0.01 0.01 0.01 0.00 0.00 0.00 0.00 0.00 0.00 0.01 0.03 0.00 0.00 0.00 0.00 0.00 0.00 0.00 0.00 0.00 0.02 0.03 0.07 0.08 0.01 0.01 0.03 0.22 0.43 0.21 0.11 0.03 0.04 0.06 0.10 0.11 0.16 0.23 0.15 0.15 0.18 0.49 0.76 0.87 0.59
0.01 0.01 0.00 0.00 0.00 0.00 0.00 0.00 0.00 0.01 0.01 0.00 0.00 0.01 0.00 0.00 0.00 0.00 0.00 0.01 0.02 0.03 0.05 0.09 0.02 0.03 0.03 0.07 0.27 0.36 0.09 0.15 0.11 0.32 0.36 0.10 0.09 0.03 0.11 0.12 0.10 0.21 0.43 1.06 0.52
0.01 0.00 0.00 0.00 0.00 0.00 0.00 0.00 0.00 0.00 0.00 0.00 0.00 0.00 0.00 0.00 0.00 0.01 0.00 0.02 0.04 0.03 0.05 0.05 0.01 0.06 0.12 0.02 0.10 0.25 0.15 0.14 0.25 0.60 0.54 0.22 0.24 0.00 0.01 0.03 0.07 0.03 0.08 0.53 0.72
0.00 0.00 0.00 0.00 0.00 0.00 0.00 0.00 0.00 0.00 0.00 0.00 0.00 0.00 0.00 0.00 0.00 0.03 0.09 0.05 0.04 0.10 0.17 0.03 0.03 0.03 0.08 0.02 0.04 0.17 0.46 0.27 0.46 0.81 1.30 0.33 0.19 0.05 0.00 0.00 0.00 0.00 0.00 0.10 0.55
0.00 0.00 0.00 0.00 0.00 0.00 0.00 0.00 0.00 0.00 0.00 0.00 0.00 0.00 0.00 0.00 0.00 0.11 0.28 0.39 0.13 0.12 0.12 0.06 0.01 0.01 0.05 0.09 0.12 0.26 0.62 1.18 0.99 1.21 0.89 0.18 0.28 0.08 0.00 0.00 0.00 0.00 0.00 0.01 0.19
0.00 0.00 0.00 0.00 0.00 0.00 0.00 0.00 0.00 0.00 0.00 0.00 0.00 0.00 0.00 0.00 0.01 0.02 0.13 0.18 0.22 0.29 0.21 0.13 0.04 0.02 0.06 0.08 0.19 0.27 0.32 0.78 0.64 0.38 0.17 0.14 0.40 0.00 0.00 0.00 0.00 0.00 0.00 0.00 0.04
0.00 0.00 0.00 0.00 0.00 0.00 0.00 0.00 0.00 0.00 0.00 0.00 0.00 0.00 0.00 0.00 0.05 0.11 0.07 0.18 0.23 0.42 0.41 0.20 0.09 0.03 0.01 0.01 0.09 0.32 0.46 0.25 0.48 0.23 0.10 0.07 0.02 0.00 0.00 0.00 0.00 0.00 0.00 0.00 0.01
0.00 0.00 0.00 0.00 0.00 0.00 0.00 0.00 0.00 0.00 0.00 0.01 0.03 0.01 0.02 0.00 0.01 0.17 0.24 0.45 0.47 0.32 0.44 0.35 0.44 0.08 0.12 0.10 0.11 0.26 0.27 0.40 0.45 0.55 0.23 0.05 0.00 0.00 0.00 0.00 0.00 0.00 0.00 0.00 0.00
0.00 0.00 0.00 0.00 0.00 0.00 0.00 0.00 0.00 0.00 0.00 0.02 0.02 0.05 0.03 0.02 0.00 0.07 0.22 0.35 0.53 0.44 0.22 0.35 0.50 0.36 0.19 0.08 0.11 0.17 0.66 0.38 0.25 0.26 0.22 0.08 0.02 0.00 0.00 0.00 0.00 0.00 0.00 0.00 0.00
0.00 0.00 0.00 0.00 0.00 0.00 0.00 0.00 0.00 0.00 0.00 0.00 0.01 0.05 0.09 0.00 0.00 0.01 0.07 0.23 0.24 0.30 0.47 0.36 0.40 0.56 0.22 0.06 0.03 0.05 0.10 0.20 0.18 0.23 0.15 0.13 0.04 0.00 0.00 0.00 0.00 0.00 0.00 0.00 0.01
0.00 0.00 0.00 0.00 0.00 0.00 0.00 0.00 0.00 0.00 0.00 0.00 0.00 0.07 0.03 0.00 0.02 0.00 0.01 0.01 0.05 0.14 0.65 0.70 0.56 0.59 0.59 0.52 0.16 0.11 0.11 0.15 0.14 0.15 0.23 0.20 0.03 0.00 0.00 0.00 0.00 0.00 0.00 0.02 0.02
0.00 0.00 0.00 0.00 0.00 0.00 0.00 0.00 0.00 0.00 0.00 0.00 0.01 0.01 0.00 0.00 0.00 0.01 0.01 0.01 0.03 0.12 0.38 0.45 0.48 0.43 0.31 0.28 0.20 0.08 0.07 0.13 0.15 0.14 0.17 0.15 0.02 0.00 0.00 0.00 0.01 0.00 0.01 0.09 0.11
0.00 0.00 0.00 0.00 0.00 0.00 0.00 0.00 0.00 0.00 0.00 0.00 0.00 0.00 0.03 0.03 0.00 0.00 0.00 0.00 0.00 0.02 0.06 0.25 0.22 0.26 0.06 0.02 0.09 0.04 0.03 0.07 0.12 0.11 0.13 0.09 0.13 0.01 0.01 0.00 0.01 0.02 0.03 0.07 0.12
0.00 0.00 0.00 0.00 0.00 0.00 0.00 0.00 0.00 0.00 0.00 0.00 0.00 0.00 0.00 0.03 0.06 0.03 0.01 0.03 0.03 0.03 0.03 0.07 0.16 0.15 0.20 0.06 0.12 0.11 0.17 0.18 0.21 0.12 0.03 0.06 0.11 0.04 0.01 0.00 0.00 0.02 0.03 0.06 0.06
0.00 0.00 0.00 0.00 0.00 0.00 0.00 0.00 0.00 0.00 0.00 0.00 0.00 0.00 0.00 0.00 0.00 0.00 0.00 0.01 0.02 0.12 0.14 0.07 0.17 0.17 0.34 0.19 0.44 0.50 0.56 0.33 0.20 0.18 0.03 0.03 0.05 0.04 0.01 0.00 0.00 0.00 0.00 0.01 0.02

GFSSW_prec_precacc24_246.txt.gz
Total_Precipitation_Accumulation
0.01 0.01 0.02 0.02 0.01 0.02 0.03 0.02 0.01 0.01 0.02 0.02 0.02 0.03 0.05 0.05 0.03 0.00 0.00 0.01 0.08 0.13 0.05 0.00 0.00 0.00 0.06 0.16 0.54 0.94 0.71 0.28 0.11 0.03 0.02 0.08 0.05 0.03 0.01 0.00 0.00 0.00 0.01 0.14 0.27
0.01 0.01 0.02 0.01 0.01 0.03 0.02 0.01 0.01 0.01 0.02 0.02 0.03 0.04 0.05 0.05 0.02 0.00 0.04 0.12 0.09 0.11 0.01 0.01 0.00 0.01 0.07 0.12 0.45 0.92 0.50 0.11 0.02 0.04 0.07 0.17 0.13 0.13 0.06 0.00 0.00 0.01 0.05 0.40 0.37
0.01 0.01 0.02 0.01 0.02 0.02 0.01 0.00 0.00 0.01 0.02 0.03 0.04 0.04 0.04 0.03 0.01 0.02 0.07 0.04 0.08 0.03 0.00 0.01 0.02 0.06 0.05 0.11 0.25 0.43 0.31 0.08 0.03 0.07 0.20 0.29 0.36 0.21 0.12 0.03 0.01 0.06 0.17 0.38 0.43
0.01 0.01 0.01 0.02 0.03 0.01 0.01 0.00 0.00 0.01 0.03 0.03 0.02 0.02 0.02 0.04 0.01 0.01 0.08 0.05 0.03 0.00 0.00 0.01 0.03 0.09 0.08 0.06 0.07 0.22 0.08 0.15 0.10 0.11 0.22 0.36 0.50 0.32 0.14 0.04 0.00 0.11 0.29 0.38 0.45
0.00 0.01 0.01 0.02 0.01 0.01 0.01 0.00 0.00 0.01 0.02 0.02 0.01 0.02 0.05 0.04 0.01 0.00 0.00 0.00 0.00 0.00 0.01 0.03 0.05 0.05 0.14 0.07 0.07 0.12 0.07 0.19 0.21 0.23 0.28 0.40 0.44 0.59 0.31 0.07 0.00 0.08 0.25 0.35 0.52
0.01 0.01 0.01 0.02 0.01 0.01 0.01 0.00 0.00 0.00 0.00 0.01 0.00 0.02 0.07 0.04 0.00 0.00 0.00 0.00 0.00 0.00 0.00 0.04 0.08 0.08 0.10 0.12 0.08 0.04 0.04 0.11 0.21 0.36 0.41 0.51 0.41 0.61 0.47 0.20 0.02 0.02 0.18 0.31 0.44
0.01 0.01 0.01 0.01 0.01 0.01 0.01 0.00 0.00 0.00 0.00 0.00 0.00 0.04 0.06 0.01 0.00 0.00 0.00 0.00 0.00 0.00 0.00 0.02 0.03 0.08 0.06 0.12 0.02 0.04 0.13 0.17 0.14 0.27 0.40 0.57 0.53 0.55 0.46 0.69 0.15 0.02 0.12 0.23 0.41
0.01 0.01 0.01 0.01 0.01 0.01 0.01 0.00 0.00 0.00 0.00 0.00 0.00 0.02 0.02 0.00 0.00 0.00 0.00 0.00 0.00 0.00 0.01 0.04 0.03 0.03 0.02 0.06 0.04 0.05 0.18 0.20 0.03 0.21 0.48 0.75 0.55 0.11 0.34 0.89 0.47 0.06 0.13 0.20 0.25
0.01 0.01 0.01 0.01 0.01 0.01 0.00 0.00 0.00 0.00 0.00 0.00 0.00 0.00 0.00 0.00 0.00 0.00 0.00 0.00 0.00 0.00 0.03 0.01 0.08 0.15 0.12 0.10 0.10 0.17 0.11 0.04 0.03 0.02 0.29 0.68 0.43 0.10 0.19 0.77 0.74 0.22 0.09 0.25 0.24
0.01 0.01 0.01 0.01 0.01 0.00 0.00 0.00 0.00 0.00 0.00 0.00 0.00 0.00 0.00 0.00 0.00 0.00 0.00 0.00 0.01 0.04 0.07 0.04 0.15 0.30 0.30 0.29 0.11 0.06 0.06 0.04 0.02 0.01 0.13 0.16 0.18 0.13 0.16 0.39 0.76 0.47 0.12 0.21 0.31
0.00 0.00 0.01 0.00 0.00 0.00 0.00 0.00 0.00 0.00 0.00 0.00 0.00 0.00 0.00 0.00 0.00 0.00 0.00 0.01 0.02 0.06 0.06 0.09 0.25 0.27 0.17 0.14 0.06 0.02 0.05 0.06 0.01 0.01 0.10 0.05 0.05 0.14 0.17 0.30 0.67 0.72 0.33 0.21 0.44
0.00 0.01 0.01 0.00 0.00 0.00 0.00 0.00 0.02 0.03 0.02 0.00 0.00 0.00 0.00 0.00 0.00 0.00 0.00 0.01 0.03 0.03 0.03 0.08 0.13 0.01 0.04 0.16 0.16 0.05 0.06 0.04 0.03 0.01 0.09 0.11 0.07 0.07 0.22 0.21 0.46 0.75 0.75 0.41 0.40
0.00 0.01 0.00 0.00 0.00 0.00 0.00 0.00 0.00 0.01 0.02 0.00 0.00 0.00 0.00 0.00 0.00 0.00 0.00 0.00 0.02 0.02 0.03 0.02 0.00 0.00 0.03 0.22 0.40 0.17 0.04 0.01 0.03 0.06 0.10 0.10 0.16 0.23 0.15 0.16 0.23 0.58 0.82 0.95 0.62
0.00 0.00 0.00 0.00 0.00 0.00 0.00 0.00 0.00 0.01 0.01 0.00 0.00 0.00 0.00 0.00 0.00 0.00 0.00 0.01 0.02 0.02 0.04 0.03 0.00 0.00 0.01 0.06 0.26 0.32 0.03 0.03 0.08 0.30 0.34 0.10 0.09 0.03 0.11 0.12 0.11 0.22 0.44 1.11 0.55
0.00 0.00 0.00 0.00 0.00 0.00 0.00 0.00 0.00 0.00 0.00 0.00 0.00 0.00 0.00 0.00 0.00 0.01 0.00 0.02 0.03 0.03 0.04 0.03 0.01 0.01 0.03 0.01 0.10 0.20 0.15 0.06 0.09 0.53 0.52 0.22 0.24 0.00 0.01 0.03 0.07 0.03 0.08 0.55 0.78
0.00 0.00 0.00 0.00 0.00 0.00 0.00 0.00 0.00 0.00 0.00 0.00 0.00 0.00 0.00 0.00 0.00 0.01 0.07 0.04 0.04 0.06 0.08 0.03 0.02 0.01 0.02 0.01 0.02 0.16 0.34 0.20 0.18 0.50 1.14 0.32 0.19 0.05 0.00 0.00 0.00 0.00 0.00 0.11 0.61
0.00 0.00 0.00 0.00 0.00 0.00 0.00 0.00 0.00 0.00 0.00 0.00 0.00 0.00 0.00 0.00 0.00 0.01 0.08 0.25 0.10 0.11 0.08 0.05 0.01 0.01 0.05 0.04 0.06 0.18 0.47 0.74 0.61 0.82 0.69 0.18 0.28 0.08 0.00 0.00 0.00 0.00 0.00 0.01 0.25
0.00 0.00 0.00 0.00 0.00 0.00 0.00 0.00 0.00 0.00 0.00 0.00 0.00 0.00 0.00 0.00 0.00 0.00 0.06 0.16 0.13 0.20 0.16 0.07 0.03 0.02 0.05 0.03 0.06 0.12 0.27 0.59 0.44 0.22 0.10 0.14 0.39 0.00 0.00 0.00 0.00 0.00 0.00 0.00 0.04
0.00 0.00 0.00 0.00 0.00 0.00 0.00 0.00 0.00 0.00 0.00 0.00 0.00 0.00 0.00 0.00 0.02 0.05 0.03 0.17 0.23 0.36 0.32 0.09 0.06 0.03 0.01 0.01 0.03 0.15 0.18 0.20 0.46 0.21 0.09 0.06 0.02 0.00 0.00 0.00 0.00 0.00 0.00 0.00 0.01
0.00 0.00 0.00 0.00 0.00 0.00 0.00 0.00 0.00 0.00 0.00 0.01 0.03 0.01 0.01 0.00 0.00 0.06 0.13 0.37 0.46 0.32 0.41 0.30 0.29 0.07 0.12 0.07 0.08 0.16 0.10 0.23 0.36 0.51 0.22 0.05 0.01 0.00 0.00 0.00 0.00 0.00 0.00 0.00 0.00
0.00 0.00 0.00 0.00 0.00 0.00 0.00 0.00 0.00 0.00 0.00 0.01 0.02 0.04 0.03 0.02 0.00 0.02 0.08 0.17 0.37 0.37 0.21 0.32 0.38 0.28 0.19 0.08 0.07 0.12 0.42 0.19 0.22 0.25 0.22 0.08 0.02 0.00 0.00 0.00 0.00 0.00 0.00 0.00 0.00
0.00 0.00 0.00 0.00 0.00 0.00 0.00 0.00 0.00 0.00 0.00 0.00 0.01 0.05 0.07 0.00 0.00 0.01 0.02 0.06 0.09 0.21 0.38 0.33 0.37 0.41 0.21 0.08 0.04 0.04 0.09 0.15 0.18 0.22 0.16 0.13 0.04 0.00 0.00 0.00 0.00 0.00 0.00 0.00 0.01
0.00 0.00 0.00 0.00 0.00 0.00 0.00 0.00 0.00 0.00 0.00 0.00 0.00 0.05 0.01 0.00 0.01 0.00 0.00 0.00 0.01 0.05 0.54 0.62 0.49 0.44 0.55 0.57 0.16 0.10 0.10 0.17 0.17 0.23 0.26 0.21 0.03 0.00 0.00 0.00 0.00 0.00 0.00 0.02 0.03
0.00 0.00 0.00 0.00 0.00 0.00 0.00 0.00 0.00 0.00 0.00 0.00 0.00 0.00 0.00 0.00 0.00 0.00 0.00 0.00 0.00 0.03 0.24 0.41 0.43 0.35 0.31 0.29 0.22 0.08 0.07 0.14 0.16 0.18 0.25 0.16 0.02 0.00 0.00 0.00 0.01 0.01 0.02 0.09 0.12
0.00 0.00 0.00 0.00 0.00 0.00 0.00 0.00 0.00 0.00 0.00 0.00 0.00 0.00 0.01 0.02 0.00 0.00 0.00 0.00 0.00 0.00 0.03 0.18 0.21 0.20 0.05 0.05 0.11 0.07 0.04 0.07 0.12 0.12 0.17 0.13 0.15 0.02 0.02 0.00 0.01 0.03 0.04 0.08 0.15
0.00 0.00 0.00 0.00 0.00 0.00 0.00 0.00 0.00 0.00 0.00 0.00 0.00 0.00 0.00 0.01 0.02 0.02 0.01 0.02 0.01 0.00 0.00 0.05 0.15 0.15 0.20 0.09 0.15 0.12 0.17 0.18 0.21 0.12 0.05 0.08 0.14 0.06 0.04 0.00 0.00 0.07 0.09 0.09 0.09
0.00 0.00 0.00 0.00 0.00 0.00 0.00 0.00 0.00 0.00 0.00 0.00 0.00 0.00 0.00 0.00 0.00 0.00 0.00 0.01 0.02 0.08 0.10 0.05 0.18 0.18 0.34 0.20 0.48 0.52 0.58 0.35 0.21 0.19 0.06 0.06 0.08 0.05 0.03 0.01 0.00 0.07 0.11 0.05 0.05

GFSSW_prec_precacc24_249.txt.gz
Total_Precipitation_Accumulation
0.01 0.00 0.01 0.01 0.01 0.01 0.02 0.01 0.00 0.00 0.01 0.02 0.02 0.03 0.04 0.05 0.02 0.00 0.00 0.01 0.16 0.19 0.07 0.00 0.00 0.00 0.04 0.11 0.43 0.89 0.74 0.37 0.27 0.06 0.02 0.09 0.07 0.06 0.03 0.00 0.00 0.00 0.01 0.17 0.40
0.01 0.00 0.01 0.01 0.01 0.02 0.01 0.01 0.00 0.00 0.01 0.02 0.03 0.04 0.04 0.04 0.01 0.00 0.04 0.12 0.09 0.13 0.01 0.01 0.00 0.00 0.04 0.07 0.33 0.82 0.49 0.11 0.07 0.12 0.10 0.19 0.16 0.17 0.09 0.03 0.01 0.01 0.05 0.46 0.62
0.00 0.00 0.01 0.01 0.02 0.01 0.00 0.00 0.00 0.01 0.01 0.03 0.03 0.03 0.03 0.02 0.01 0.02 0.05 0.03 0.07 0.03 0.00 0.00 0.01 0.04 0.03 0.06 0.18 0.38 0.30 0.08 0.03 0.08 0.23 0.31 0.39 0.28 0.26 0.10 0.01 0.06 0.17 0.44 0.75
0.00 0.01 0.01 0.01 0.02 0.01 0.00 0.00 0.00 0.01 0.03 0.03 0.02 0.01 0.01 0.03 0.00 0.01 0.07 0.05 0.03 0.00 0.00 0.00 0.01 0.08 0.08 0.06 0.05 0.18 0.07 0.14 0.10 0.12 0.24 0.39 0.55 0.38 0.28 0.21 0.05 0.12 0.29 0.42 0.82
0.00 0.01 0.01 0.01 0.01 0.01 0.01 0.00 0.00 0.01 0.02 0.02 0.01 0.01 0.04 0.03 0.00 0.00 0.00 0.00 0.00 0.00 0.00 0.01 0.03 0.05 0.15 0.09 0.08 0.09 0.04 0.14 0.20 0.23 0.29 0.41 0.47 0.69 0.43 0.25 0.06 0.11 0.25 0.38 0.82
0.01 0.01 0.01 0.01 0.01 0.01 0.01 0.00 0.00 0.00 0.00 0.00 0.00 0.01 0.05 0.03 0.00 0.00 0.00 0.00 0.00 0.00 0.00 0.00 0.06 0.07 0.10 0.15 0.17 0.05 0.03 0.04 0.15 0.35 0.41 0.53 0.44 0.69 0.58 0.43 0.08 0.05 0.19 0.33 0.55
0.01 0.01 0.01 0.01 0.01 0.01 0.01 0.00 0.00 0.00 0.00 0.00 0.00 0.02 0.03 0.01 0.00 0.00 0.00 0.00 0.00 0.00 0.00 0.01 0.02 0.04 0.04 0.15 0.12 0.02 0.07 0.08 0.07 0.20 0.38 0.60 0.56 0.59 0.49 0.81 0.28 0.03 0.13 0.27 0.46
0.01 0.01 0.00 0.01 0.01 0.01 0.00 0.00 0.00 0.00 0.00 0.00 0.00 0.00 0.00 0.00 0.00 0.00 0.00 0.00 0.00 0.00 0.01 0.04 0.02 0.01 0.01 0.05 0.05 0.03 0.13 0.16 0.01 0.12 0.41 0.73 0.53 0.12 0.38 0.98 0.66 0.09 0.14 0.24 0.29
0.00 0.00 0.00 0.01 0.01 0.01 0.00 0.00 0.00 0.00 0.00 0.00 0.00 0.00 0.00 0.00 0.00 0.00 0.00 0.00 0.00 0.00 0.03 0.01 0.05 0.10 0.07 0.09 0.08 0.12 0.08 0.03 0.02 0.01 0.27 0.61 0.41 0.14 0.22 0.82 0.92 0.31 0.13 0.28 0.28
0.00 0.00 0.00 0.00 0.00 0.00 0.00 0.00 0.00 0.00 0.00 0.00 0.00 0.00 0.00 0.00 0.00 0.00 0.00 0.00 0.00 0.04 0.07 0.04 0.12 0.18 0.19 0.26 0.11 0.05 0.06 0.05 0.04 0.05 0.13 0.18 0.20 0.17 0.19 0.42 0.95 0.63 0.19 0.26 0.41
0.00 0.00 0.00 0.00 0.00 0.00 0.00 0.00 0.00 0.00 0.00 0.00 0.00 0.00 0.00 0.00 0.00 0.00 0.00 0.00 0.01 0.05 0.06 0.09 0.24 0.19 0.09 0.12 0.07 0.02 0.04 0.08 0.03 0.03 0.10 0.06 0.06 0.17 0.22 0.32 0.80 0.93 0.44 0.28 0.59
0.00 0.00 0.00 0.00 0.00 0.00 0.00 0.00 0.01 0.01 0.01 0.00 0.00 0.00 0.00 0.00 0.00 0.00 0.00 0.01 0.03 0.03 0.03 0.08 0.13 0.01 0.03 0.14 0.15 0.05 0.04 0.03 0.02 0.00 0.05 0.09 0.07 0.07 0.25 0.23 0.52 0.97 0.90 0.49 0.54
0.00 0.01 0.00 0.00 0.00 0.00 0.00 0.00 0.00 0.01 0.01 0.00 0.00 0.00 0.00 0.00 0.00 0.00 0.00 0.00 0.02 0.02 0.03 0.02 0.00 0.00 0.02 0.18 0.38 0.16 0.03 0.01 0.03 0.04 0.05 0.08 0.14 0.22 0.16 0.16 0.25 0.70 1.00 1.05 0.69
0.00 0.00 0.00 0.00 0.00 0.00 0.00 0.00 0.00 0.01 0.00 0.00 0.00 0.00 0.00 0.00 0.00 0.00 0.00 0.01 0.02 0.02 0.04 0.02 0.00 0.00 0.01 0.04 0.25 0.32 0.03 0.02 0.06 0.26 0.19 0.09 0.08 0.03 0.11 0.12 0.12 0.30 0.59 1.22 0.61
0.00 0.00 0.00 0.00 0.00 0.00 0.00 0.00 0.00 0.00 0.00 0.00 0.00 0.00 0.00 0.00 0.00 0.01 0.00 0.02 0.03 0.02 0.02 0.03 0.01 0.00 0.00 0.01 0.09 0.20 0.15 0.06 0.07 0.45 0.39 0.17 0.21 0.00 0.01 0.03 0.08 0.06 0.16 0.65 0.85
0.00 0.00 0.00 0.00 0.00 0.00 0.00 0.00 0.00 0.00 0.00 0.00 0.00 0.00 0.00 0.00 0.00 0.00 0.02 0.04 0.03 0.03 0.02 0.01 0.01 0.01 0.00 0.00 0.02 0.15 0.40 0.20 0.13 0.35 0.86 0.22 0.17 0.05 0.00 0.00 0.02 0.02 0.04 0.14 0.65
0.00 0.00 0.00 0.00 0.00 0.00 0.00 0.00 0.00 0.00 0.00 0.00 0.00 0.00 0.00 0.00 0.00 0.00 0.02 0.17 0.09 0.10 0.06 0.02 0.01 0.00 0.03 0.01 0.04 0.17 0.48 0.55 0.39 0.47 0.45 0.15 0.25 0.07 0.00 0.00 0.00 0.01 0.01 0.02 0.25
0.00 0.00 0.00 0.00 0.00 0.00 0.00 0.00 0.00 0.00 0.00 0.00 0.00 0.00 0.00 0.00 0.00 0.00 0.01 0.13 0.12 0.17 0.11 0.04 0.03 0.02 0.03 0.03 0.03 0.12 0.31 0.38 0.26 0.09 0.04 0.10 0.32 0.00 0.00 0.00 0.00 0.00 0.00 0.00 0.05
0.00 0.00 0.00 0.00 0.00 0.00 0.00 0.00 0.00 0.00 0.00 0.00 0.00 0.00 0.00 0.00 0.00 0.00 0.02 0.16 0.22 0.31 0.28 0.08 0.06 0.03 0.01 0.01 0.02 0.09 0.16 0.24 0.35 0.09 0.05 0.04 0.02 0.00 0.00 0.00 0.00 0.00 0.00 0.00 0.01
0.00 0.00 0.00 0.00 0.00 0.00 0.00 0.00 0.00 0.00 0.00 0.01 0.02 0.01 0.01 0.00 0.00 0.01 0.05 0.14 0.29 0.27 0.38 0.29 0.27 0.07 0.12 0.06 0.06 0.09 0.05 0.20 0.24 0.41 0.13 0.02 0.06 0.00 0.00 0.00 0.00 0.00 0.01 0.01 0.00
0.00 0.00 0.00 0.00 0.00 0.00 0.00 0.00 0.00 0.00 0.00 0.01 0.01 0.03 0.02 0.01 0.00 0.01 0.02 0.05 0.10 0.09 0.18 0.31 0.29 0.19 0.15 0.06 0.04 0.10 0.23 0.09 0.10 0.22 0.22 0.08 0.07 0.01 0.01 0.00 0.00 0.00 0.00 0.00 0.00
0.00 0.00 0.00 0.00 0.00 0.00 0.00 0.00 0.00 0.00 0.00 0.00 0.01 0.03 0.04 0.00 0.00 0.01 0.01 0.01 0.00 0.05 0.17 0.27 0.32 0.24 0.20 0.11 0.04 0.03 0.08 0.09 0.15 0.15 0.17 0.13 0.07 0.01 0.00 0.00 0.00 0.00 0.00 0.00 0.01
0.00 0.00 0.00 0.00 0.00 0.00 0.00 0.00 0.00 0.00 0.00 0.00 0.00 0.02 0.01 0.00 0.00 0.00 0.00 0.00 0.00 0.00 0.27 0.48 0.41 0.30 0.48 0.56 0.15 0.07 0.06 0.13 0.15 0.19 0.24 0.20 0.04 0.00 0.00 0.01 0.00 0.00 0.00 0.02 0.03
0.00 0.00 0.00 0.00 0.00 0.00 0.00 0.00 0.00 0.00 0.00 0.00 0.00 0.00 0.00 0.00 0.00 0.00 0.00 0.00 0.00 0.01 0.12 0.31 0.36 0.27 0.31 0.29 0.23 0.08 0.06 0.13 0.17 0.19 0.34 0.17 0.03 0.00 0.00 0.01 0.02 0.02 0.02 0.09 0.13
0.00 0.00 0.00 0.00 0.00 0.00 0.00 0.00 0.00 0.00 0.00 0.00 0.00 0.00 0.00 0.00 0.00 0.00 0.00 0.00 0.00 0.00 0.01 0.08 0.18 0.12 0.04 0.07 0.12 0.09 0.04 0.07 0.13 0.14 0.26 0.17 0.16 0.04 0.04 0.01 0.01 0.06 0.06 0.10 0.16
0.00 0.00 0.00 0.00 0.00 0.00 0.00 0.00 0.00 0.00 0.00 0.00 0.00 0.00 0.00 0.00 0.00 0.00 0.01 0.02 0.01 0.00 0.00 0.02 0.10 0.12 0.19 0.11 0.15 0.13 0.16 0.17 0.21 0.13 0.08 0.12 0.17 0.10 0.08 0.01 0.01 0.10 0.11 0.10 0.10
0.00 0.00 0.00 0.00 0.00 0.00 0.00 0.00 0.00 0.00 0.00 0.00 0.00 0.00 0.00 0.00 0.00 0.00 0.00 0.01 0.02 0.08 0.08 0.03 0.15 0.17 0.31 0.20 0.49 0.51 0.60 0.35 0.21 0.21 0.09 0.09 0.12 0.08 0.07 0.02 0.02 0.11 0.19 0.07 0.06

GFSSW_prec_precacc24_252.txt.gz
Total_Precipitation_Accumulation
0.00 0.00 0.00 0.00 0.00 0.01 0.01 0.00 0.00 0.00 0.01 0.01 0.01 0.03 0.04 0.03 0.01 0.00 0.00 0.01 0.17 0.19 0.07 0.00 0.00 0.00 0.03 0.10 0.32 0.77 0.75 0.43 0.33 0.10 0.03 0.09 0.07 0.06 0.04 0.01 0.01 0.00 0.01 0.18 0.42
0.00 0.00 0.00 0.00 0.01 0.01 0.01 0.00 0.00 0.00 0.01 0.01 0.02 0.03 0.03 0.02 0.00 0.00 0.02 0.09 0.09 0.13 0.01 0.00 0.00 0.00 0.02 0.06 0.28 0.62 0.48 0.13 0.08 0.21 0.18 0.21 0.20 0.17 0.13 0.04 0.01 0.01 0.05 0.46 0.65
0.00 0.00 0.01 0.01 0.01 0.01 0.00 0.00 0.00 0.01 0.01 0.03 0.03 0.02 0.02 0.01 0.00 0.01 0.02 0.02 0.07 0.03 0.00 0.00 0.01 0.03 0.03 0.05 0.16 0.30 0.20 0.08 0.04 0.11 0.29 0.38 0.41 0.28 0.29 0.14 0.02 0.06 0.17 0.44 0.80
0.00 0.00 0.01 0.01 0.01 0.00 0.00 0.00 0.00 0.01 0.02 0.02 0.01 0.01 0.01 0.01 0.00 0.00 0.05 0.05 0.03 0.00 0.00 0.00 0.01 0.07 0.08 0.06 0.07 0.17 0.05 0.11 0.08 0.12 0.25 0.41 0.59 0.39 0.31 0.24 0.14 0.15 0.29 0.42 0.85
0.00 0.01 0.01 0.00 0.00 0.00 0.01 0.00 0.00 0.00 0.01 0.01 0.01 0.01 0.02 0.01 0.00 0.00 0.00 0.00 0.00 0.00 0.00 0.00 0.02 0.05 0.15 0.09 0.08 0.08 0.03 0.11 0.17 0.21 0.28 0.41 0.47 0.70 0.48 0.34 0.16 0.14 0.25 0.38 0.81
0.00 0.00 0.00 0.00 0.00 0.00 0.00 0.00 0.00 0.00 0.00 0.00 0.00 0.01 0.03 0.02 0.00 0.00 0.00 0.00 0.00 0.00 0.00 0.00 0.04 0.06 0.11 0.16 0.18 0.07 0.04 0.02 0.07 0.28 0.38 0.52 0.44 0.72 0.64 0.54 0.17 0.08 0.19 0.33 0.55
0.00 0.00 0.00 0.00 0.00 0.00 0.00 0.00 0.00 0.00 0.00 0.00 0.00 0.00 0.01 0.00 0.00 0.00 0.00 0.00 0.00 0.00 0.00 0.01 0.02 0.03 0.04 0.15 0.14 0.05 0.08 0.06 0.02 0.08 0.28 0.59 0.55 0.60 0.54 0.89 0.38 0.05 0.13 0.27 0.45
0.00 0.00 0.00 0.00 0.00 0.00 0.00 0.00 0.00 0.00 0.00 0.00 0.00 0.00 0.00 0.00 0.00 0.00 0.00 0.00 0.00 0.00 0.01 0.04 0.01 0.00 0.01 0.04 0.04 0.05 0.12 0.14 0.03 0.06 0.23 0.62 0.53 0.15 0.42 1.03 0.74 0.12 0.14 0.24 0.29
0.00 0.00 0.00 0.00 0.00 0.00 0.00 0.00 0.00 0.00 0.00 0.00 0.00 0.00 0.00 0.00 0.00 0.00 0.00 0.00 0.00 0.00 0.03 0.01 0.05 0.06 0.06 0.07 0.06 0.11 0.08 0.03 0.03 0.02 0.21 0.39 0.35 0.18 0.28 0.85 0.97 0.35 0.14 0.27 0.28
0.00 0.00 0.00 0.00 0.00 0.00 0.00 0.00 0.00 0.00 0.00 0.00 0.00 0.00 0.00 0.00 0.00 0.00 0.00 0.00 0.00 0.04 0.07 0.03 0.10 0.13 0.15 0.21 0.10 0.05 0.06 0.05 0.06 0.07 0.09 0.15 0.16 0.20 0.27 0.45 0.97 0.66 0.20 0.24 0.40
0.00 0.00 0.00 0.00 0.00 0.00 0.00 0.00 0.00 0.00 0.00 0.00 0.00 0.00 0.00 0.00 0.00 0.00 0.00 0.00 0.00 0.05 0.06 0.09 0.21 0.10 0.05 0.11 0.07 0.02 0.04 0.08 0.05 0.11 0.06 0.06 0.06 0.18 0.26 0.36 0.82 0.96 0.45 0.27 0.58
0.00 0.00 0.00 0.00 0.00 0.00 0.00 0.00 0.00 0.01 0.01 0.00 0.00 0.00 0.00 0.00 0.00 0.00 0.00 0.01 0.03 0.03 0.02 0.07 0.11 0.01 0.00 0.08 0.12 0.03 0.04 0.02 0.02 0.00 0.03 0.08 0.05 0.06 0.25 0.23 0.53 0.99 0.92 0.51 0.53
0.00 0.00 0.00 0.00 0.00 0.00 0.00 0.00 0.00 0.01 0.01 0.00 0.00 0.00 0.00 0.00 0.00 0.00 0.00 0.00 0.02 0.02 0.03 0.02 0.00 0.00 0.01 0.06 0.21 0.12 0.04 0.01 0.02 0.01 0.03 0.04 0.09 0.18 0.15 0.18 0.26 0.68 1.02 1.11 0.76
0.00 0.00 0.00 0.00 0.00 0.00 0.00 0.00 0.00 0.01 0.00 0.00 0.00 0.00 0.00 0.00 0.00 0.00 0.00 0.01 0.02 0.02 0.04 0.02 0.00 0.00 0.00 0.00 0.10 0.14 0.03 0.02 0.05 0.21 0.13 0.05 0.05 0.02 0.11 0.13 0.14 0.29 0.62 1.30 0.71
0.00 0.00 0.00 0.00 0.00 0.00 0.00 0.00 0.00 0.00 0.00 0.00 0.00 0.00 0.00 0.00 0.00 0.01 0.00 0.01 0.02 0.02 0.02 0.02 0.01 0.00 0.00 0.00 0.04 0.08 0.13 0.06 0.06 0.41 0.33 0.08 0.07 0.01 0.03 0.06 0.12 0.10 0.27 0.74 0.98
0.00 0.00 0.00 0.00 0.00 0.00 0.00 0.00 0.00 0.00 0.00 0.00 0.00 0.00 0.00 0.00 0.00 0.00 0.02 0.02 0.02 0.02 0.01 0.00 0.01 0.00 0.00 0.00 0.01 0.09 0.40 0.18 0.10 0.27 0.68 0.19 0.05 0.02 0.01 0.02 0.05 0.07 0.15 0.21 0.75
0.00 0.00 0.00 0.00 0.00 0.00 0.00 0.00 0.00 0.00 0.00 0.00 0.00 0.00 0.00 0.00 0.00 0.00 0.01 0.14 0.07 0.07 0.04 0.01 0.01 0.00 0.00 0.00 0.02 0.15 0.47 0.52 0.33 0.30 0.33 0.15 0.18 0.05 0.00 0.00 0.00 0.02 0.09 0.06 0.28
0.00 0.00 0.00 0.00 0.00 0.00 0.00 0.00 0.00 0.00 0.00 0.00 0.00 0.00 0.00 0.00 0.00 0.00 0.00 0.12 0.09 0.08 0.09 0.04 0.03 0.02 0.00 0.01 0.01 0.11 0.31 0.38 0.21 0.08 0.03 0.10 0.29 0.01 0.00 0.00 0.00 0.00 0.03 0.05 0.07
0.00 0.00 0.00 0.00 0.00 0.00 0.00 0.00 0.00 0.00 0.00 0.00 0.00 0.00 0.00 0.00 0.00 0.00 0.02 0.11 0.14 0.17 0.24 0.06 0.05 0.03 0.00 0.00 0.01 0.04 0.16 0.27 0.31 0.07 0.06 0.04 0.03 0.00 0.00 0.00 0.00 0.00 0.01 0.03 0.04
0.00 0.00 0.00 0.00 0.00 0.00 0.00 0.00 0.00 0.00 0.00 0.00 0.02 0.01 0.01 0.00 0.00 0.00 0.01 0.04 0.10 0.09 0.23 0.18 0.24 0.07 0.11 0.03 0.02 0.02 0.03 0.20 0.20 0.29 0.08 0.02 0.07 0.02 0.01 0.00 0.00 0.00 0.01 0.01 0.01
0.00 0.00 0.00 0.00 0.00 0.00 0.00 0.00 0.00 0.00 0.00 0.00 0.01 0.02 0.02 0.00 0.00 0.00 0.01 0.02 0.01 0.00 0.06 0.22 0.24 0.10 0.11 0.06 0.03 0.05 0.12 0.09 0.10 0.20 0.22 0.10 0.11 0.06 0.07 0.03 0.00 0.00 0.00 0.00 0.00
0.00 0.00 0.00 0.00 0.00 0.00 0.00 0.00 0.00 0.00 0.00 0.00 0.00 0.01 0.02 0.00 0.00 0.00 0.01 0.01 0.00 0.00 0.03 0.17 0.19 0.13 0.15 0.12 0.04 0.05 0.06 0.09 0.15 0.13 0.18 0.16 0.11 0.07 0.08 0.06 0.01 0.00 0.00 0.00 0.04
0.00 0.00 0.00 0.00 0.00 0.00 0.00 0.00 0.00 0.00 0.00 0.00 0.00 0.00 0.00 0.00 0.00 0.00 0.00 0.00 0.00 0.00 0.11 0.25 0.21 0.21 0.34 0.48 0.11 0.05 0.06 0.08 0.16 0.20 0.25 0.25 0.09 0.04 0.05 0.07 0.01 0.01 0.01 0.02 0.06
0.00 0.00 0.00 0.00 0.00 0.00 0.00 0.00 0.00 0.00 0.00 0.00 0.00 0.00 0.00 0.00 0.00 0.00 0.00 0.00 0.00 0.00 0.06 0.17 0.22 0.22 0.30 0.28 0.22 0.06 0.05 0.05 0.14 0.19 0.34 0.22 0.06 0.01 0.01 0.04 0.04 0.04 0.03 0.10 0.14
0.00 0.00 0.00 0.00 0.00 0.00 0.00 0.00 0.00 0.00 0.00 0.00 0.00 0.00 0.00 0.00 0.00 0.00 0.00 0.00 0.00 0.00 0.00 0.04 0.09 0.05 0.02 0.07 0.12 0.10 0.04 0.03 0.08 0.14 0.29 0.21 0.19 0.06 0.06 0.03 0.06 0.12 0.07 0.12 0.19
0.00 0.00 0.00 0.00 0.00 0.00 0.00 0.00 0.00 0.00 0.00 0.00 0.00 0.00 0.00 0.00 0.00 0.00 0.00 0.01 0.00 0.00 0.00 0.02 0.05 0.05 0.12 0.11 0.15 0.12 0.14 0.16 0.20 0.12 0.10 0.15 0.19 0.12 0.09 0.02 0.03 0.20 0.15 0.13 0.13
0.00 0.00 0.00 0.00 0.00 0.00 0.00 0.00 0.00 0.00 0.00 0.00 0.00 0.00 0.00 0.00 0.00 0.00 0.00 0.00 0.01 0.07 0.07 0.02 0.10 0.14 0.21 0.13 0.48 0.49 0.57 0.35 0.22 0.21 0.09 0.10 0.13 0.09 0.07 0.03 0.04 0.20 0.25 0.11 0.09

GFSSW_prec_precacc24_258.txt.gz
Total_Precipitation_Accumulation
0.00 0.00 0.00 0.00 0.00 0.00 0.00 0.00 0.00 0.00 0.01 0.01 0.01 0.02 0.02 0.02 0.00 0.00 0.00 0.01 0.16 0.19 0.07 0.00 0.00 0.00 0.01 0.01 0.13 0.46 0.57 0.42 0.34 0.12 0.03 0.05 0.10 0.09 0.07 0.06 0.03 0.02 0.01 0.22 0.47
0.00 0.00 0.00 0.00 0.00 0.00 0.00 0.00 0.00 0.00 0.00 0.00 0.01 0.01 0.01 0.01 0.00 0.00 0.01 0.04 0.06 0.12 0.00 0.00 0.00 0.00 0.01 0.02 0.12 0.37 0.29 0.11 0.10 0.24 0.19 0.19 0.23 0.18 0.16 0.14 0.08 0.03 0.06 0.46 0.66
0.00 0.00 0.00 0.00 0.00 0.00 0.00 0.00 0.00 0.00 0.00 0.01 0.01 0.00 0.01 0.00 0.00 0.01 0.00 0.00 0.06 0.03 0.00 0.00 0.01 0.03 0.02 0.04 0.10 0.19 0.12 0.04 0.03 0.10 0.36 0.42 0.39 0.29 0.30 0.21 0.16 0.11 0.21 0.47 0.82
0.00 0.00 0.00 0.00 0.00 0.00 0.00 0.00 0.00 0.00 0.00 0.01 0.00 0.01 0.00 0.00 0.00 0.00 0.00 0.00 0.02 0.00 0.00 0.00 0.00 0.07 0.08 0.06 0.07 0.16 0.04 0.06 0.05 0.11 0.24 0.34 0.57 0.37 0.31 0.25 0.18 0.24 0.39 0.58 0.90
0.00 0.00 0.00 0.00 0.00 0.00 0.00 0.00 0.00 0.00 0.00 0.00 0.00 0.00 0.01 0.00 0.00 0.00 0.00 0.00 0.00 0.00 0.00 0.00 0.02 0.04 0.16 0.11 0.08 0.08 0.03 0.10 0.10 0.15 0.20 0.28 0.34 0.68 0.48 0.35 0.27 0.30 0.36 0.52 0.89
0.00 0.00 0.00 0.00 0.00 0.00 0.00 0.00 0.00 0.00 0.00 0.00 0.00 0.00 0.00 0.00 0.00 0.00 0.00 0.00 0.00 0.00 0.00 0.00 0.04 0.06 0.11 0.17 0.19 0.07 0.04 0.03 0.04 0.10 0.17 0.33 0.31 0.62 0.62 0.56 0.26 0.22 0.29 0.45 0.71
0.00 0.00 0.00 0.00 0.00 0.00 0.00 0.00 0.00 0.00 0.00 0.00 0.00 0.00 0.00 0.00 0.00 0.00 0.00 0.00 0.00 0.00 0.00 0.01 0.02 0.03 0.04 0.15 0.14 0.06 0.07 0.06 0.02 0.01 0.08 0.29 0.31 0.50 0.49 0.92 0.44 0.11 0.23 0.42 0.63
0.00 0.00 0.00 0.00 0.00 0.00 0.00 0.00 0.00 0.00 0.00 0.00 0.00 0.00 0.00 0.00 0.00 0.00 0.00 0.00 0.00 0.00 0.01 0.04 0.01 0.00 0.01 0.02 0.03 0.06 0.19 0.22 0.15 0.05 0.09 0.27 0.15 0.11 0.37 1.02 0.76 0.16 0.19 0.34 0.34
0.00 0.00 0.00 0.00 0.00 0.00 0.00 0.00 0.00 0.00 0.00 0.00 0.00 0.00 0.00 0.00 0.00 0.00 0.00 0.00 0.00 0.00 0.02 0.01 0.01 0.01 0.02 0.02 0.06 0.12 0.13 0.08 0.14 0.15 0.21 0.16 0.11 0.16 0.27 0.78 0.98 0.39 0.15 0.27 0.26
0.00 0.00 0.00 0.00 0.00 0.00 0.00 0.00 0.00 0.00 0.00 0.00 0.00 0.00 0.00 0.00 0.00 0.00 0.00 0.00 0.00 0.00 0.01 0.01 0.00 0.02 0.02 0.11 0.09 0.02 0.05 0.05 0.12 0.10 0.05 0.16 0.08 0.19 0.34 0.52 0.89 0.65 0.19 0.23 0.34
0.00 0.00 0.00 0.00 0.00 0.00 0.00 0.00 0.00 0.00 0.00 0.00 0.00 0.00 0.00 0.00 0.00 0.00 0.00 0.00 0.00 0.00 0.00 0.04 0.13 0.03 0.00 0.05 0.06 0.01 0.02 0.07 0.06 0.16 0.03 0.08 0.08 0.15 0.23 0.42 0.71 0.84 0.39 0.25 0.50
0.00 0.00 0.00 0.00 0.00 0.00 0.00 0.00 0.00 0.00 0.00 0.00 0.00 0.00 0.00 0.00 0.00 0.00 0.00 0.00 0.00 0.01 0.01 0.03 0.06 0.01 0.00 0.02 0.03 0.02 0.01 0.02 0.01 0.01 0.03 0.08 0.05 0.08 0.15 0.16 0.37 0.77 0.73 0.45 0.51
0.00 0.00 0.00 0.00 0.00 0.00 0.00 0.00 0.00 0.00 0.00 0.00 0.00 0.00 0.00 0.00 0.00 0.00 0.00 0.00 0.00 0.00 0.01 0.00 0.00 0.00 0.01 0.05 0.08 0.05 0.03 0.01 0.00 0.00 0.01 0.03 0.09 0.12 0.13 0.16 0.14 0.43 0.80 0.85 0.75
0.00 0.00 0.00 0.00 0.00 0.00 0.00 0.00 0.00 0.00 0.00 0.00 0.00 0.00 0.00 0.00 0.00 0.00 0.00 0.00 0.00 0.00 0.00 0.00 0.00 0.00 0.01 0.01 0.04 0.11 0.03 0.01 0.00 0.07 0.15 0.07 0.32 0.12 0.14 0.14 0.06 0.19 0.50 0.75 0.69
0.00 0.00 0.00 0.00 0.00 0.00 0.00 0.00 0.00 0.00 0.00 0.00 0.00 0.00 0.00 0.00 0.00 0.00 0.00 0.00 0.00 0.00 0.00 0.00 0.00 0.00 0.00 0.00 0.01 0.02 0.06 0.05 0.03 0.23 0.11 0.09 0.46 0.14 0.16 0.14 0.10 0.22 0.42 0.56 0.92
0.00 0.00 0.00 0.00 0.00 0.00 0.00 0.00 0.00 0.00 0.00 0.00 0.00 0.00 0.00 0.00 0.00 0.00 0.00 0.01 0.00 0.00 0.00 0.00 0.00 0.00 0.00 0.00 0.00 0.04 0.19 0.12 0.06 0.15 0.28 0.06 0.25 0.08 0.06 0.05 0.11 0.22 0.41 0.38 0.82
0.00 0.00 0.00 0.00 0.00 0.00 0.00 0.00 0.00 0.00 0.00 0.00 0.00 0.00 0.00 0.00 0.00 0.00 0.01 0.08 0.01 0.00 0.00 0.00 0.00 0.00 0.00 0.00 0.02 0.09 0.20 0.19 0.08 0.13 0.14 0.10 0.12 0.13 0.06 0.02 0.05 0.18 0.41 0.39 0.63
0.00 0.00 0.00 0.00 0.00 0.00 0.00 0.00 0.00 0.00 0.00 0.00 0.00 0.00 0.00 0.00 0.00 0.00 0.00 0.03 0.01 0.00 0.00 0.00 0.00 0.01 0.00 0.01 0.00 0.07 0.23 0.17 0.07 0.08 0.04 0.07 0.19 0.12 0.08 0.03 0.03 0.13 0.32 0.49 0.44
0.00 0.00 0.00 0.00 0.00 0.00 0.00 0.00 0.00 0.00 0.00 0.00 0.00 0.00 0.00 0.00 0.00 0.00 0.01 0.03 0.04 0.01 0.02 0.03 0.01 0.02 0.00 0.00 0.00 0.02 0.11 0.23 0.08 0.03 0.09 0.07 0.10 0.08 0.06 0.01 0.01 0.10 0.30 0.49 0.43
0.00 0.00 0.00 0.00 0.00 0.00 0.00 0.00 0.00 0.00 0.00 0.00 0.00 0.00 0.00 0.00 0.00 0.00 0.00 0.02 0.02 0.00 0.01 0.06 0.11 0.04 0.10 0.01 0.01 0.02 0.03 0.18 0.11 0.12 0.18 0.05 0.09 0.06 0.05 0.05 0.02 0.09 0.22 0.32 0.34
0.00 0.00 0.00 0.00 0.00 0.00 0.00 0.00 0.00 0.00 0.00 0.00 0.00 0.00 0.00 0.00 0.00 0.00 0.00 0.00 0.00 0.00 0.00 0.06 0.13 0.02 0.08 0.06 0.03 0.03 0.05 0.08 0.13 0.13 0.26 0.15 0.16 0.18 0.18 0.16 0.09 0.13 0.18 0.32 0.45
0.00 0.00 0.00 0.00 0.00 0.00 0.00 0.00 0.00 0.00 0.00 0.00 0.00 0.00 0.00 0.00 0.00 0.00 0.00 0.00 0.00 0.00 0.01 0.04 0.10 0.04 0.11 0.11 0.04 0.04 0.04 0.08 0.20 0.16 0.25 0.20 0.17 0.21 0.22 0.18 0.10 0.14 0.15 0.31 0.49
0.00 0.00 0.00 0.00 0.00 0.00 0.00 0.00 0.00 0.00 0.00 0.00 0.00 0.00 0.00 0.00 0.00 0.00 0.00 0.00 0.00 0.00 0.03 0.06 0.07 0.04 0.13 0.37 0.10 0.01 0.01 0.06 0.17 0.29 0.34 0.35 0.18 0.13 0.15 0.17 0.06 0.13 0.16 0.31 0.50
0.00 0.00 0.00 0.00 0.00 0.00 0.00 0.00 0.00 0.00 0.00 0.00 0.00 0.00 0.00 0.00 0.00 0.00 0.00 0.00 0.00 0.00 0.01 0.02 0.04 0.10 0.11 0.14 0.21 0.04 0.02 0.04 0.13 0.23 0.42 0.30 0.13 0.07 0.04 0.12 0.09 0.11 0.22 0.40 0.55
0.00 0.00 0.00 0.00 0.00 0.00 0.00 0.00 0.00 0.00 0.00 0.00 0.00 0.00 0.00 0.00 0.00 0.00 0.00 0.00 0.00 0.00 0.00 0.01 0.02 0.01 0.01 0.06 0.11 0.10 0.03 0.03 0.05 0.14 0.32 0.26 0.24 0.15 0.13 0.15 0.18 0.22 0.25 0.38 0.46
0.00 0.00 0.00 0.00 0.00 0.00 0.00 0.00 0.00 0.00 0.00 0.00 0.00 0.00 0.00 0.00 0.00 0.00 0.00 0.00 0.00 0.00 0.00 0.01 0.02 0.01 0.03 0.11 0.12 0.10 0.05 0.08 0.10 0.10 0.09 0.16 0.22 0.15 0.13 0.05 0.11 0.30 0.29 0.37 0.30
0.00 0.00 0.00 0.00 0.00 0.00 0.00 0.00 0.00 0.00 0.00 0.00 0.00 0.00 0.00 0.00 0.00 0.00 0.00 0.00 0.01 0.05 0.04 0.02 0.06 0.04 0.02 0.07 0.32 0.21 0.25 0.23 0.12 0.18 0.10 0.12 0.14 0.09 0.09 0.04 0.12 0.31 0.35 0.29 0.26

GFSSW_prec_precacc24_264.txt.gz
Total_Precipitation_Accumulation
0.00 0.00 0.00 0.00 0.00 0.00 0.00 0.00 0.00 0.00 0.00 0.00 0.00 0.00 0.00 0.00 0.00 0.00 0.00 0.01 0.16 0.17 0.04 0.00 0.00 0.00 0.01 0.01 0.05 0.25 0.37 0.36 0.31 0.12 0.03 0.03 0.09 0.07 0.07 0.06 0.09 0.13 0.07 0.21 0.45
0.00 0.00 0.00 0.00 0.00 0.00 0.00 0.00 0.00 0.00 0.00 0.00 0.00 0.00 0.00 0.00 0.00 0.00 0.00 0.04 0.05 0.10 0.00 0.00 0.00 0.00 0.00 0.01 0.05 0.22 0.22 0.04 0.09 0.24 0.18 0.14 0.19 0.15 0.14 0.14 0.14 0.13 0.18 0.46 0.63
0.00 0.00 0.00 0.00 0.00 0.00 0.00 0.00 0.00 0.00 0.00 0.00 0.00 0.00 0.00 0.00 0.00 0.00 0.00 0.00 0.00 0.00 0.00 0.00 0.00 0.01 0.01 0.03 0.05 0.12 0.10 0.03 0.02 0.08 0.30 0.33 0.25 0.19 0.27 0.21 0.19 0.18 0.39 0.48 0.77
0.00 0.00 0.00 0.00 0.00 0.00 0.00 0.00 0.00 0.00 0.00 0.00 0.00 0.00 0.00 0.00 0.00 0.00 0.00 0.00 0.00 0.00 0.00 0.00 0.00 0.06 0.07 0.05 0.06 0.14 0.03 0.03 0.03 0.06 0.16 0.29 0.41 0.22 0.25 0.24 0.19 0.20 0.46 0.66 0.84
0.00 0.00 0.00 0.00 0.00 0.00 0.00 0.00 0.00 0.00 0.00 0.00 0.00 0.00 0.00 0.00 0.00 0.00 0.00 0.00 0.00 0.00 0.00 0.00 0.02 0.03 0.15 0.10 0.07 0.07 0.02 0.08 0.07 0.09 0.11 0.13 0.25 0.48 0.30 0.32 0.26 0.26 0.37 0.75 0.89
0.00 0.00 0.00 0.00 0.00 0.00 0.00 0.00 0.00 0.00 0.00 0.00 0.00 0.00 0.00 0.00 0.00 0.00 0.00 0.00 0.00 0.00 0.00 0.00 0.04 0.06 0.11 0.17 0.18 0.07 0.04 0.03 0.04 0.07 0.10 0.14 0.14 0.49 0.48 0.51 0.25 0.22 0.26 0.68 0.84
0.00 0.00 0.00 0.00 0.00 0.00 0.00 0.00 0.00 0.00 0.00 0.00 0.00 0.00 0.00 0.00 0.00 0.00 0.00 0.00 0.00 0.00 0.00 0.01 0.02 0.03 0.04 0.14 0.14 0.06 0.07 0.06 0.04 0.01 0.03 0.17 0.13 0.24 0.42 0.64 0.33 0.11 0.19 0.50 0.83
0.00 0.00 0.00 0.00 0.00 0.00 0.00 0.00 0.00 0.00 0.00 0.00 0.00 0.00 0.00 0.00 0.00 0.00 0.00 0.00 0.00 0.00 0.00 0.04 0.01 0.00 0.01 0.02 0.03 0.06 0.19 0.23 0.23 0.09 0.08 0.11 0.07 0.09 0.31 0.68 0.51 0.12 0.14 0.29 0.42
0.00 0.00 0.00 0.00 0.00 0.00 0.00 0.00 0.00 0.00 0.00 0.00 0.00 0.00 0.00 0.00 0.00 0.00 0.00 0.00 0.00 0.00 0.01 0.00 0.00 0.00 0.01 0.02 0.05 0.11 0.13 0.08 0.14 0.16 0.19 0.09 0.07 0.16 0.26 0.56 0.70 0.29 0.11 0.12 0.21
0.00 0.00 0.00 0.00 0.00 0.00 0.00 0.00 0.00 0.00 0.00 0.00 0.00 0.00 0.00 0.00 0.00 0.00 0.00 0.00 0.00 0.00 0.00 0.00 0.00 0.01 0.01 0.08 0.10 0.02 0.04 0.05 0.12 0.10 0.05 0.16 0.08 0.19 0.34 0.49 0.64 0.51 0.18 0.11 0.21
0.00 0.00 0.00 0.00 0.00 0.00 0.00 0.00 0.00 0.00 0.00 0.00 0.00 0.00 0.00 0.00 0.00 0.00 0.00 0.00 0.00 0.00 0.00 0.00 0.01 0.00 0.00 0.05 0.07 0.01 0.01 0.04 0.06 0.16 0.03 0.08 0.08 0.20 0.25 0.63 0.70 0.67 0.37 0.15 0.31
0.00 0.00 0.00 0.00 0.00 0.00 0.00 0.00 0.00 0.00 0.00 0.00 0.00 0.00 0.00 0.00 0.00 0.00 0.00 0.00 0.00 0.00 0.00 0.00 0.01 0.00 0.00 0.01 0.02 0.02 0.01 0.01 0.00 0.01 0.03 0.08 0.08 0.27 0.33 0.76 0.71 0.50 0.53 0.28 0.30
0.00 0.00 0.00 0.00 0.00 0.00 0.00 0.00 0.00 0.00 0.00 0.00 0.00 0.00 0.00 0.00 0.00 0.00 0.00 0.00 0.00 0.00 0.00 0.00 0.00 0.00 0.00 0.03 0.02 0.02 0.03 0.01 0.00 0.00 0.03 0.05 0.18 0.40 0.40 0.78 0.45 0.34 0.49 0.42 0.29
0.00 0.00 0.00 0.00 0.00 0.00 0.00 0.00 0.00 0.00 0.00 0.00 0.00 0.00 0.00 0.00 0.00 0.00 0.00 0.00 0.00 0.00 0.00 0.00 0.00 0.00 0.01 0.01 0.03 0.08 0.03 0.01 0.00 0.01 0.14 0.11 0.65 0.31 0.23 0.36 0.12 0.20 0.36 0.44 0.32
0.00 0.00 0.00 0.00 0.00 0.00 0.00 0.00 0.00 0.00 0.00 0.00 0.00 0.00 0.00 0.00 0.00 0.00 0.00 0.00 0.00 0.00 0.00 0.00 0.00 0.00 0.00 0.00 0.00 0.02 0.04 0.04 0.01 0.00 0.04 0.23 0.70 0.22 0.20 0.23 0.11 0.33 0.49 0.48 0.46
0.00 0.00 0.00 0.00 0.00 0.00 0.00 0.00 0.00 0.00 0.00 0.00 0.00 0.00 0.00 0.00 0.00 0.00 0.00 0.00 0.00 0.00 0.00 0.00 0.00 0.00 0.00 0.00 0.00 0.03 0.17 0.10 0.03 0.01 0.07 0.21 0.36 0.14 0.19 0.17 0.17 0.46 0.54 0.46 0.56
0.00 0.00 0.00 0.00 0.00 0.00 0.00 0.00 0.00 0.00 0.00 0.00 0.00 0.00 0.00 0.00 0.00 0.00 0.00 0.00 0.00 0.00 0.00 0.00 0.00 0.00 0.00 0.00 0.01 0.07 0.19 0.13 0.04 0.05 0.16 0.14 0.07 0.24 0.18 0.15 0.29 0.50 0.62 0.69 0.70
0.00 0.00 0.00 0.00 0.00 0.00 0.00 0.00 0.00 0.00 0.00 0.00 0.00 0.00 0.00 0.00 0.00 0.00 0.00 0.00 0.00 0.00 0.00 0.00 0.00 0.00 0.00 0.01 0.01 0.07 0.22 0.15 0.07 0.10 0.16 0.15 0.13 0.23 0.14 0.16 0.38 0.50 0.65 0.71 0.56
0.00 0.00 0.00 0.00 0.00 0.00 0.00 0.00 0.00 0.00 0.00 0.00 0.00 0.00 0.00 0.00 0.00 0.00 0.00 0.00 0.00 0.00 0.00 0.02 0.01 0.00 0.00 0.00 0.00 0.01 0.10 0.22 0.12 0.09 0.14 0.12 0.14 0.16 0.07 0.07 0.15 0.30 0.61 0.81 0.66
0.00 0.00 0.00 0.00 0.00 0.00 0.00 0.00 0.00 0.00 0.00 0.00 0.00 0.00 0.00 0.00 0.00 0.00 0.00 0.00 0.00 0.00 0.00 0.03 0.07 0.00 0.00 0.00 0.00 0.01 0.02 0.19 0.11 0.15 0.32 0.10 0.12 0.15 0.12 0.15 0.13 0.26 0.55 0.88 0.71
0.00 0.00 0.00 0.00 0.00 0.00 0.00 0.00 0.00 0.00 0.00 0.00 0.00 0.00 0.00 0.00 0.00 0.00 0.00 0.00 0.00 0.00 0.00 0.04 0.07 0.01 0.02 0.05 0.02 0.01 0.02 0.08 0.15 0.20 0.33 0.22 0.21 0.33 0.34 0.35 0.29 0.42 0.64 1.09 1.04
0.00 0.00 0.00 0.00 0.00 0.00 0.00 0.00 0.00 0.00 0.00 0.00 0.00 0.00 0.00 0.00 0.00 0.00 0.00 0.00 0.00 0.00 0.01 0.02 0.06 0.04 0.05 0.06 0.02 0.03 0.02 0.09 0.23 0.19 0.21 0.23 0.20 0.33 0.36 0.37 0.35 0.52 0.62 1.12 1.28
0.00 0.00 0.00 0.00 0.00 0.00 0.00 0.00 0.00 0.00 0.00 0.00 0.00 0.00 0.00 0.00 0.00 0.00 0.00 0.00 0.00 0.00 0.02 0.04 0.04 0.02 0.06 0.20 0.03 0.00 0.01 0.06 0.17 0.32 0.28 0.20 0.18 0.16 0.23 0.28 0.28 0.56 0.56 1.07 1.26
0.00 0.00 0.00 0.00 0.00 0.00 0.00 0.00 0.00 0.00 0.00 0.00 0.00 0.00 0.00 0.00 0.00 0.00 0.00 0.00 0.00 0.00 0.00 0.01 0.03 0.07 0.07 0.07 0.10 0.03 0.01 0.04 0.09 0.16 0.35 0.22 0.15 0.09 0.07 0.19 0.23 0.38 0.65 1.03 1.17
0.00 0.00 0.00 0.00 0.00 0.00 0.00 0.00 0.00 0.00 0.00 0.00 0.00 0.00 0.00 0.00 0.00 0.00 0.00 0.00 0.00 0.00 0.00 0.01 0.02 0.02 0.01 0.06 0.10 0.11 0.03 0.02 0.04 0.06 0.23 0.22 0.18 0.20 0.21 0.26 0.34 0.43 0.59 0.81 0.94
0.00 0.00 0.00 0.00 0.00 0.00 0.00 0.00 0.00 0.00 0.00 0.00 0.00 0.00 0.00 0.00 0.00 0.00 0.00 0.00 0.00 0.00 0.00 0.01 0.02 0.01 0.03 0.10 0.11 0.11 0.02 0.04 0.03 0.03 0.09 0.16 0.17 0.17 0.21 0.16 0.25 0.43 0.56 0.70 0.74
0.00 0.00 0.00 0.00 0.00 0.00 0.00 0.00 0.00 0.00 0.00 0.00 0.00 0.00 0.00 0.00 0.00 0.00 0.00 0.00 0.01 0.05 0.02 0.01 0.04 0.02 0.03 0.04 0.17 0.11 0.10 0.11 0.08 0.08 0.10 0.12 0.13 0.10 0.12 0.10 0.23 0.44 0.60 0.59 0.63

GFSSW_prec_precacc24_267.txt.gz
Total_Precipitation_Accumulation
0.00 0.00 0.00 0.00 0.00 0.00 0.00 0.00 0.00 0.00 0.00 0.00 0.00 0.00 0.00 0.00 0.00 0.00 0.00 0.01 0.15 0.15 0.03 0.00 0.00 0.00 0.00 0.00 0.03 0.16 0.29 0.35 0.31 0.11 0.03 0.03 0.09 0.07 0.07 0.07 0.09 0.13 0.07 0.18 0.26
0.00 0.00 0.00 0.00 0.00 0.00 0.00 0.00 0.00 0.00 0.00 0.00 0.00 0.00 0.00 0.00 0.00 0.00 0.00 0.02 0.02 0.04 0.00 0.00 0.00 0.00 0.00 0.01 0.03 0.15 0.19 0.04 0.09 0.24 0.18 0.13 0.18 0.13 0.13 0.14 0.13 0.12 0.16 0.33 0.48
0.00 0.00 0.00 0.00 0.00 0.00 0.00 0.00 0.00 0.00 0.00 0.00 0.00 0.00 0.00 0.00 0.00 0.00 0.00 0.00 0.00 0.00 0.00 0.00 0.00 0.00 0.00 0.02 0.03 0.08 0.08 0.02 0.02 0.07 0.28 0.29 0.16 0.19 0.24 0.20 0.18 0.15 0.29 0.43 0.66
0.00 0.00 0.00 0.00 0.00 0.00 0.00 0.00 0.00 0.00 0.00 0.00 0.00 0.00 0.00 0.00 0.00 0.00 0.00 0.00 0.00 0.00 0.00 0.00 0.00 0.02 0.05 0.04 0.05 0.09 0.01 0.02 0.02 0.03 0.12 0.23 0.22 0.15 0.22 0.23 0.19 0.17 0.31 0.61 0.83
0.00 0.00 0.00 0.00 0.00 0.00 0.00 0.00 0.00 0.00 0.00 0.00 0.00 0.00 0.00 0.00 0.00 0.00 0.00 0.00 0.00 0.00 0.00 0.00 0.00 0.01 0.10 0.09 0.06 0.05 0.01 0.05 0.04 0.05 0.08 0.10 0.15 0.23 0.24 0.31 0.26 0.22 0.25 0.66 0.79
0.00 0.00 0.00 0.00 0.00 0.00 0.00 0.00 0.00 0.00 0.00 0.00 0.00 0.00 0.00 0.00 0.00 0.00 0.00 0.00 0.00 0.00 0.00 0.00 0.01 0.03 0.09 0.16 0.16 0.06 0.03 0.02 0.04 0.05 0.08 0.11 0.09 0.30 0.26 0.40 0.25 0.21 0.18 0.60 0.77
0.00 0.00 0.00 0.00 0.00 0.00 0.00 0.00 0.00 0.00 0.00 0.00 0.00 0.00 0.00 0.00 0.00 0.00 0.00 0.00 0.00 0.00 0.00 0.00 0.01 0.01 0.03 0.14 0.14 0.05 0.06 0.06 0.04 0.01 0.03 0.15 0.08 0.14 0.26 0.41 0.31 0.10 0.16 0.47 0.78
0.00 0.00 0.00 0.00 0.00 0.00 0.00 0.00 0.00 0.00 0.00 0.00 0.00 0.00 0.00 0.00 0.00 0.00 0.00 0.00 0.00 0.00 0.00 0.01 0.01 0.00 0.01 0.02 0.03 0.05 0.17 0.21 0.23 0.09 0.07 0.09 0.05 0.09 0.27 0.52 0.35 0.11 0.13 0.30 0.43
0.00 0.00 0.00 0.00 0.00 0.00 0.00 0.00 0.00 0.00 0.00 0.00 0.00 0.00 0.00 0.00 0.00 0.00 0.00 0.00 0.00 0.00 0.00 0.00 0.00 0.00 0.01 0.01 0.05 0.10 0.10 0.08 0.14 0.16 0.18 0.10 0.08 0.16 0.30 0.58 0.50 0.22 0.10 0.15 0.22
0.00 0.00 0.00 0.00 0.00 0.00 0.00 0.00 0.00 0.00 0.00 0.00 0.00 0.00 0.00 0.00 0.00 0.00 0.00 0.00 0.00 0.00 0.00 0.00 0.00 0.01 0.01 0.05 0.10 0.02 0.03 0.05 0.12 0.10 0.05 0.16 0.10 0.21 0.36 0.58 0.59 0.35 0.17 0.19 0.29
0.00 0.00 0.00 0.00 0.00 0.00 0.00 0.00 0.00 0.00 0.00 0.00 0.00 0.00 0.00 0.00 0.00 0.00 0.00 0.00 0.00 0.00 0.00 0.00 0.01 0.00 0.00 0.04 0.06 0.01 0.01 0.04 0.06 0.16 0.03 0.08 0.09 0.33 0.34 0.70 0.75 0.54 0.28 0.18 0.31
0.00 0.00 0.00 0.00 0.00 0.00 0.00 0.00 0.00 0.00 0.00 0.00 0.00 0.00 0.00 0.00 0.00 0.00 0.00 0.00 0.00 0.00 0.00 0.00 0.01 0.00 0.00 0.01 0.02 0.02 0.01 0.01 0.00 0.01 0.04 0.11 0.12 0.33 0.42 0.88 0.83 0.55 0.34 0.21 0.26
0.00 0.00 0.00 0.00 0.00 0.00 0.00 0.00 0.00 0.00 0.00 0.00 0.00 0.00 0.00 0.00 0.00 0.00 0.00 0.00 0.00 0.00 0.00 0.00 0.00 0.00 0.00 0.02 0.01 0.02 0.03 0.01 0.00 0.00 0.03 0.06 0.27 0.51 0.49 0.89 0.53 0.36 0.35 0.27 0.19
0.00 0.00 0.00 0.00 0.00 0.00 0.00 0.00 0.00 0.00 0.00 0.00 0.00 0.00 0.00 0.00 0.00 0.00 0.00 0.00 0.00 0.00 0.00 0.00 0.00 0.00 0.01 0.01 0.01 0.07 0.02 0.01 0.00 0.01 0.15 0.15 0.72 0.37 0.26 0.46 0.13 0.21 0.33 0.32 0.26
0.00 0.00 0.00 0.00 0.00 0.00 0.00 0.00 0.00 0.00 0.00 0.00 0.00 0.00 0.00 0.00 0.00 0.00 0.00 0.00 0.00 0.00 0.00 0.00 0.00 0.00 0.00 0.00 0.00 0.01 0.02 0.03 0.01 0.00 0.05 0.27 0.72 0.23 0.21 0.24 0.11 0.33 0.50 0.41 0.44
0.00 0.00 0.00 0.00 0.00 0.00 0.00 0.00 0.00 0.00 0.00 0.00 0.00 0.00 0.00 0.00 0.00 0.00 0.00 0.00 0.00 0.00 0.00 0.00 0.00 0.00 0.00 0.00 0.00 0.01 0.16 0.07 0.02 0.01 0.11 0.24 0.36 0.15 0.24 0.22 0.18 0.46 0.56 0.46 0.55
0.00 0.00 0.00 0.00 0.00 0.00 0.00 0.00 0.00 0.00 0.00 0.00 0.00 0.00 0.00 0.00 0.00 0.00 0.00 0.00 0.00 0.00 0.00 0.00 0.00 0.00 0.00 0.00 0.00 0.04 0.17 0.11 0.03 0.05 0.22 0.18 0.07 0.29 0.22 0.19 0.35 0.57 0.66 0.71 0.72
0.00 0.00 0.00 0.00 0.00 0.00 0.00 0.00 0.00 0.00 0.00 0.00 0.00 0.00 0.00 0.00 0.00 0.00 0.00 0.00 0.00 0.00 0.00 0.00 0.00 0.00 0.00 0.01 0.01 0.04 0.19 0.15 0.07 0.10 0.18 0.16 0.14 0.26 0.15 0.19 0.47 0.63 0.71 0.76 0.61
0.00 0.00 0.00 0.00 0.00 0.00 0.00 0.00 0.00 0.00 0.00 0.00 0.00 0.00 0.00 0.00 0.00 0.00 0.00 0.00 0.00 0.00 0.01 0.03 0.01 0.00 0.00 0.00 0.00 0.01 0.08 0.20 0.13 0.09 0.16 0.13 0.15 0.17 0.07 0.07 0.17 0.37 0.67 0.87 0.73
0.00 0.00 0.00 0.00 0.00 0.00 0.00 0.00 0.00 0.00 0.00 0.00 0.00 0.00 0.00 0.00 0.00 0.00 0.00 0.00 0.00 0.00 0.00 0.04 0.07 0.00 0.00 0.00 0.00 0.01 0.02 0.17 0.11 0.16 0.33 0.11 0.13 0.17 0.14 0.16 0.13 0.29 0.60 0.94 0.77
0.00 0.00 0.00 0.00 0.00 0.00 0.00 0.00 0.00 0.00 0.00 0.00 0.00 0.00 0.00 0.00 0.00 0.00 0.00 0.00 0.00 0.00 0.00 0.04 0.05 0.00 0.01 0.04 0.02 0.01 0.02 0.07 0.14 0.20 0.33 0.22 0.21 0.39 0.40 0.40 0.33 0.47 0.70 1.16 1.13
0.00 0.00 0.00 0.00 0.00 0.00 0.00 0.00 0.00 0.00 0.00 0.00 0.00 0.00 0.00 0.00 0.00 0.00 0.00 0.00 0.00 0.00 0.01 0.02 0.05 0.02 0.03 0.06 0.02 0.03 0.02 0.09 0.21 0.19 0.20 0.24 0.21 0.37 0.41 0.42 0.40 0.59 0.68 1.19 1.37
0.00 0.00 0.00 0.00 0.00 0.00 0.00 0.00 0.00 0.00 0.00 0.00 0.00 0.00 0.00 0.00 0.00 0.00 0.00 0.00 0.00 0.00 0.02 0.03 0.04 0.02 0.02 0.12 0.01 0.00 0.00 0.05 0.13 0.31 0.25 0.20 0.19 0.17 0.25 0.32 0.34 0.67 0.64 1.12 1.32
0.00 0.00 0.00 0.00 0.00 0.00 0.00 0.00 0.00 0.00 0.00 0.00 0.00 0.00 0.00 0.00 0.00 0.00 0.00 0.00 0.00 0.00 0.00 0.01 0.03 0.06 0.06 0.07 0.09 0.04 0.00 0.03 0.06 0.15 0.33 0.22 0.16 0.09 0.08 0.21 0.28 0.49 0.78 1.11 1.24
0.00 0.00 0.00 0.00 0.00 0.00 0.00 0.00 0.00 0.00 0.00 0.00 0.00 0.00 0.00 0.00 0.00 0.00 0.00 0.00 0.00 0.00 0.00 0.00 0.01 0.02 0.01 0.05 0.04 0.10 0.03 0.02 0.03 0.06 0.22 0.21 0.17 0.19 0.22 0.30 0.41 0.55 0.76 0.94 1.00
0.00 0.00 0.00 0.00 0.00 0.00 0.00 0.00 0.00 0.00 0.00 0.00 0.00 0.00 0.00 0.00 0.00 0.00 0.00 0.00 0.00 0.00 0.00 0.00 0.01 0.00 0.03 0.07 0.07 0.08 0.01 0.02 0.02 0.02 0.08 0.12 0.14 0.14 0.20 0.19 0.33 0.55 0.73 0.84 0.86
0.02 0.00 0.00 0.00 0.00 0.00 0.00 0.00 0.00 0.00 0.00 0.00 0.00 0.00 0.00 0.00 0.00 0.00 0.00 0.00 0.01 0.04 0.01 0.01 0.03 0.02 0.03 0.01 0.08 0.09 0.06 0.06 0.06 0.05 0.09 0.11 0.11 0.06 0.11 0.10 0.28 0.55 0.75 0.77 0.82

GFSSW_prec_precacc24_270.txt.gz
Total_Precipitation_Accumulation
0.00 0.00 0.00 0.00 0.00 0.00 0.00 0.00 0.00 0.00 0.00 0.00 0.00 0.00 0.00 0.00 0.00 0.00 0.00 0.00 0.09 0.06 0.02 0.00 0.00 0.00 0.00 0.00 0.01 0.10 0.24 0.23 0.25 0.10 0.02 0.01 0.07 0.06 0.06 0.07 0.09 0.13 0.06 0.11 0.22
0.00 0.00 0.00 0.00 0.00 0.00 0.00 0.00 0.00 0.00 0.00 0.00 0.00 0.00 0.00 0.00 0.00 0.00 0.00 0.00 0.00 0.02 0.00 0.00 0.00 0.00 0.00 0.00 0.02 0.10 0.14 0.04 0.08 0.23 0.15 0.06 0.12 0.06 0.12 0.14 0.13 0.12 0.14 0.12 0.31
0.00 0.00 0.00 0.00 0.00 0.00 0.00 0.00 0.00 0.00 0.00 0.00 0.00 0.00 0.00 0.00 0.00 0.00 0.00 0.00 0.00 0.00 0.00 0.00 0.00 0.00 0.00 0.01 0.02 0.05 0.06 0.01 0.01 0.06 0.24 0.20 0.05 0.09 0.19 0.18 0.18 0.15 0.26 0.22 0.46
0.00 0.00 0.00 0.00 0.00 0.00 0.00 0.00 0.00 0.00 0.00 0.00 0.00 0.00 0.00 0.00 0.00 0.00 0.00 0.00 0.00 0.00 0.00 0.00 0.00 0.01 0.02 0.03 0.04 0.05 0.00 0.00 0.00 0.01 0.08 0.17 0.13 0.08 0.17 0.20 0.19 0.17 0.30 0.48 0.60
0.00 0.00 0.00 0.00 0.00 0.00 0.00 0.00 0.00 0.00 0.00 0.00 0.00 0.00 0.00 0.00 0.00 0.00 0.00 0.00 0.00 0.00 0.00 0.00 0.00 0.00 0.02 0.04 0.04 0.02 0.00 0.01 0.01 0.01 0.01 0.01 0.04 0.11 0.17 0.29 0.26 0.22 0.22 0.56 0.64
0.00 0.00 0.00 0.00 0.00 0.00 0.00 0.00 0.00 0.00 0.00 0.00 0.00 0.00 0.00 0.00 0.00 0.00 0.00 0.00 0.00 0.00 0.00 0.00 0.00 0.00 0.02 0.05 0.13 0.04 0.03 0.01 0.00 0.00 0.02 0.03 0.03 0.13 0.17 0.35 0.25 0.20 0.13 0.49 0.62
0.00 0.00 0.00 0.00 0.00 0.00 0.00 0.00 0.00 0.00 0.00 0.00 0.00 0.00 0.00 0.00 0.00 0.00 0.00 0.00 0.00 0.00 0.00 0.00 0.00 0.01 0.02 0.05 0.13 0.04 0.04 0.05 0.04 0.00 0.01 0.09 0.05 0.05 0.08 0.23 0.29 0.10 0.12 0.40 0.66
0.00 0.00 0.00 0.00 0.00 0.00 0.00 0.00 0.00 0.00 0.00 0.00 0.00 0.00 0.00 0.00 0.00 0.00 0.00 0.00 0.00 0.00 0.00 0.00 0.00 0.00 0.01 0.01 0.02 0.05 0.15 0.16 0.22 0.08 0.06 0.08 0.05 0.09 0.11 0.20 0.30 0.10 0.09 0.25 0.35
0.00 0.00 0.00 0.00 0.00 0.00 0.00 0.00 0.00 0.00 0.00 0.00 0.00 0.00 0.00 0.00 0.00 0.00 0.00 0.00 0.00 0.00 0.00 0.00 0.00 0.00 0.01 0.01 0.05 0.10 0.08 0.06 0.12 0.16 0.16 0.09 0.12 0.18 0.22 0.26 0.33 0.21 0.08 0.12 0.23
0.00 0.00 0.00 0.00 0.00 0.00 0.00 0.00 0.00 0.00 0.00 0.00 0.00 0.00 0.00 0.00 0.00 0.00 0.00 0.00 0.00 0.00 0.00 0.00 0.00 0.01 0.01 0.02 0.09 0.02 0.00 0.02 0.11 0.10 0.03 0.14 0.11 0.23 0.32 0.50 0.43 0.29 0.14 0.19 0.32
0.00 0.00 0.00 0.00 0.00 0.00 0.00 0.00 0.00 0.00 0.00 0.00 0.00 0.00 0.00 0.00 0.00 0.00 0.00 0.00 0.00 0.00 0.00 0.00 0.01 0.00 0.00 0.03 0.03 0.01 0.01 0.03 0.05 0.16 0.08 0.11 0.10 0.38 0.36 0.71 0.62 0.39 0.21 0.18 0.29
0.00 0.00 0.00 0.00 0.00 0.00 0.00 0.00 0.00 0.00 0.00 0.00 0.00 0.00 0.00 0.00 0.00 0.00 0.00 0.00 0.00 0.00 0.00 0.00 0.01 0.00 0.00 0.01 0.02 0.01 0.01 0.01 0.00 0.01 0.06 0.13 0.19 0.41 0.45 0.95 0.82 0.52 0.26 0.18 0.23
0.00 0.00 0.00 0.00 0.00 0.00 0.00 0.00 0.00 0.00 0.00 0.00 0.00 0.00 0.00 0.00 0.00 0.00 0.00 0.00 0.00 0.00 0.00 0.00 0.00 0.00 0.00 0.02 0.01 0.02 0.03 0.01 0.00 0.00 0.05 0.14 0.39 0.58 0.58 0.93 0.54 0.32 0.32 0.23 0.18
0.00 0.00 0.00 0.00 0.00 0.00 0.00 0.00 0.00 0.00 0.00 0.00 0.00 0.00 0.00 0.00 0.00 0.00 0.00 0.00 0.00 0.00 0.00 0.00 0.00 0.00 0.01 0.01 0.01 0.07 0.02 0.01 0.00 0.01 0.21 0.21 0.77 0.39 0.32 0.51 0.13 0.21 0.34 0.28 0.22
0.00 0.00 0.00 0.00 0.00 0.00 0.00 0.00 0.00 0.00 0.00 0.00 0.00 0.00 0.00 0.00 0.00 0.00 0.00 0.00 0.00 0.00 0.00 0.00 0.00 0.00 0.00 0.00 0.00 0.01 0.00 0.02 0.01 0.01 0.06 0.27 0.73 0.25 0.21 0.24 0.12 0.33 0.50 0.40 0.38
0.00 0.00 0.00 0.00 0.00 0.00 0.00 0.00 0.00 0.00 0.00 0.00 0.00 0.00 0.00 0.00 0.00 0.00 0.00 0.00 0.00 0.00 0.00 0.00 0.00 0.00 0.00 0.00 0.00 0.01 0.11 0.06 0.02 0.03 0.10 0.25 0.37 0.15 0.28 0.27 0.19 0.46 0.56 0.46 0.49
0.00 0.00 0.00 0.00 0.00 0.00 0.00 0.00 0.00 0.00 0.00 0.00 0.00 0.00 0.00 0.00 0.00 0.00 0.00 0.00 0.00 0.00 0.00 0.00 0.00 0.00 0.00 0.00 0.00 0.03 0.13 0.06 0.02 0.04 0.23 0.20 0.07 0.30 0.24 0.21 0.41 0.62 0.70 0.73 0.68
0.00 0.00 0.00 0.00 0.00 0.00 0.00 0.00 0.00 0.00 0.00 0.00 0.00 0.00 0.00 0.00 0.00 0.00 0.00 0.00 0.00 0.00 0.00 0.00 0.00 0.00 0.00 0.01 0.01 0.01 0.13 0.14 0.07 0.11 0.18 0.15 0.15 0.27 0.15 0.19 0.48 0.66 0.76 0.77 0.61
0.00 0.00 0.00 0.00 0.00 0.00 0.00 0.00 0.00 0.00 0.00 0.00 0.00 0.00 0.00 0.00 0.00 0.00 0.00 0.00 0.00 0.00 0.01 0.03 0.01 0.00 0.00 0.00 0.00 0.01 0.06 0.14 0.13 0.09 0.16 0.13 0.15 0.18 0.07 0.07 0.17 0.37 0.68 0.87 0.74
0.00 0.00 0.00 0.00 0.00 0.00 0.00 0.00 0.00 0.00 0.00 0.00 0.00 0.00 0.00 0.00 0.00 0.00 0.00 0.00 0.00 0.00 0.00 0.04 0.06 0.00 0.00 0.00 0.00 0.01 0.01 0.13 0.10 0.16 0.33 0.11 0.12 0.17 0.15 0.16 0.13 0.30 0.62 0.95 0.79
0.00 0.01 0.00 0.00 0.00 0.00 0.00 0.00 0.00 0.00 0.00 0.00 0.00 0.00 0.00 0.00 0.00 0.00 0.00 0.00 0.00 0.00 0.00 0.04 0.04 0.00 0.01 0.02 0.02 0.01 0.02 0.05 0.12 0.21 0.33 0.22 0.22 0.40 0.44 0.43 0.35 0.47 0.72 1.21 1.18
0.01 0.02 0.00 0.00 0.00 0.00 0.00 0.00 0.00 0.00 0.00 0.00 0.00 0.00 0.00 0.00 0.00 0.00 0.00 0.00 0.00 0.00 0.01 0.02 0.04 0.02 0.02 0.04 0.01 0.03 0.02 0.08 0.16 0.17 0.19 0.24 0.21 0.38 0.42 0.45 0.43 0.61 0.70 1.22 1.41
0.03 0.02 0.00 0.00 0.00 0.00 0.00 0.00 0.00 0.00 0.00 0.00 0.00 0.00 0.00 0.00 0.00 0.00 0.00 0.00 0.00 0.00 0.02 0.03 0.03 0.01 0.01 0.04 0.00 0.00 0.00 0.03 0.09 0.23 0.22 0.20 0.19 0.17 0.25 0.33 0.37 0.72 0.66 1.15 1.33
0.06 0.04 0.01 0.00 0.00 0.00 0.00 0.00 0.00 0.00 0.00 0.00 0.00 0.00 0.00 0.00 0.00 0.00 0.00 0.00 0.00 0.00 0.00 0.01 0.02 0.04 0.05 0.05 0.07 0.03 0.00 0.02 0.04 0.12 0.26 0.21 0.16 0.09 0.08 0.21 0.28 0.50 0.80 1.13 1.26
0.07 0.04 0.01 0.02 0.01 0.00 0.00 0.00 0.00 0.00 0.00 0.00 0.00 0.00 0.00 0.00 0.00 0.00 0.00 0.00 0.00 0.00 0.00 0.00 0.01 0.02 0.01 0.02 0.02 0.07 0.02 0.02 0.03 0.05 0.18 0.18 0.15 0.18 0.21 0.31 0.43 0.59 0.79 0.94 0.99
0.07 0.04 0.03 0.01 0.01 0.01 0.00 0.00 0.00 0.00 0.00 0.00 0.00 0.00 0.00 0.00 0.00 0.00 0.00 0.00 0.00 0.00 0.00 0.00 0.01 0.00 0.02 0.05 0.05 0.07 0.01 0.01 0.01 0.01 0.06 0.10 0.11 0.11 0.17 0.19 0.35 0.56 0.73 0.86 0.86
0.05 0.04 0.03 0.02 0.01 0.01 0.00 0.00 0.00 0.00 0.00 0.00 0.00 0.00 0.00 0.00 0.00 0.00 0.00 0.00 0.00 0.03 0.01 0.01 0.02 0.01 0.02 0.01 0.04 0.07 0.04 0.04 0.05 0.04 0.06 0.08 0.08 0.05 0.09 0.10 0.28 0.54 0.73 0.85 0.87